EA1FJG Weather Reports


Display with metric or nautical units.
time (UTC)temp
F
wind
direction
speed
MPH
gust
MPH
rain 1hr
in
rain 24hr
in
rain mn
in
humidity
%
barometer
mb
20260902200224 65 7 0.0 1.0 0.00 0.00 0.00 96 1023.9
20260902200024 65 7 0.0 1.0 0.00 0.00 0.00 96 1023.9
20260902195903 65 7 0.0 1.0 0.00 0.00 0.00 96 1023.9
20260902195803 65 7 0.0 1.0 0.00 0.00 0.00 96 1023.9
20260902195724 65 7 0.0 1.0 0.00 0.00 0.00 96 1023.9
20260902195603 65 10 0.0 1.0 0.00 0.00 0.00 96 1023.8
20260902195503 65 10 0.0 1.0 0.00 0.00 0.00 96 1023.9
20260902195403 65 10 0.0 1.0 0.00 0.00 0.00 96 1023.8
20260902195306 65 10 0.0 1.0 0.00 0.00 0.00 96 1023.7
20260902195203 65 12 0.0 1.0 0.00 0.00 0.00 95 1023.7
20260902195103 65 12 0.0 1.0 0.00 0.00 0.00 95 1023.8
20260902195003 65 6 0.0 1.0 0.00 0.00 0.00 95 1023.7
20260902194903 65 6 0.0 1.0 0.00 0.00 0.00 95 1023.6
20260902194803 65 6 0.0 1.0 0.00 0.00 0.00 95 1023.7
20260902194703 65 2 0.0 1.0 0.00 0.00 0.00 95 1023.7
20260902194624 65 2 0.0 1.0 0.00 0.00 0.00 95 1023.7
20260902194503 65 355 0.0 1.0 0.00 0.00 0.00 95 1023.8
20260902194403 65 355 0.0 1.0 0.00 0.00 0.00 95 1023.7
20260902194303 65 355 0.0 1.0 0.00 0.00 0.00 95 1023.6
20260902194203 65 355 0.0 1.0 0.00 0.00 0.00 95 1023.6
20260902194103 65 355 0.0 1.0 0.00 0.00 0.00 95 1023.6
20260902194003 65 355 0.0 1.0 0.00 0.00 0.00 95 1023.6
20260902193903 66 355 0.0 1.0 0.00 0.00 0.00 94 1023.8
20260902193803 66 2 0.0 1.0 0.00 0.00 0.00 94 1023.6
20260902193703 66 6 0.0 1.0 0.00 0.00 0.00 94 1023.8
20260902193603 66 9 0.0 1.0 0.00 0.00 0.00 94 1023.7
20260902193503 66 14 0.0 1.0 0.00 0.00 0.00 94 1023.5
20260902193403 66 24 0.0 1.0 0.00 0.00 0.00 94 1023.6
20260902193303 66 24 0.0 1.0 0.00 0.00 0.00 94 1023.6
20260902193224 66 24 0.0 1.0 0.00 0.00 0.00 94 1023.5
20260902193103 66 24 0.0 1.0 0.00 0.00 0.00 94 1023.5
20260902193024 66 24 0.0 1.0 0.00 0.00 0.00 94 1023.5
20260902192903 66 24 0.0 1.0 0.00 0.00 0.00 94 1023.5
20260902192824 66 24 0.0 1.0 0.00 0.00 0.00 94 1023.5
20260902192724 66 24 0.0 1.0 0.00 0.00 0.00 93 1023.6
20260902192603 66 24 0.0 1.0 0.00 0.00 0.00 93 1023.3
20260902192503 66 17 0.0 1.0 0.00 0.00 0.00 93 1023.5
20260902192403 66 15 0.0 1.0 0.00 0.00 0.00 93 1023.2
20260902192306 66 14 0.0 1.0 0.00 0.00 0.00 93 1023.3
20260902192224 67 14 0.0 1.0 0.00 0.00 0.00 93 1023.3
20260902192124 67 14 0.0 1.0 0.00 0.00 0.00 93 1023.5
20260902192003 67 13 0.0 1.0 0.00 0.00 0.00 93 1023.5
20260902191903 67 13 0.0 1.0 0.00 0.00 0.00 92 1023.3
20260902191803 67 13 0.0 1.0 0.00 0.00 0.00 92 1023.6
20260902191703 67 9 0.0 1.0 0.00 0.00 0.00 92 1023.3
20260902191603 67 360 0.0 2.0 0.00 0.00 0.00 92 1023.2
20260902191503 67 357 0.0 2.0 0.00 0.00 0.00 92 1023.3
20260902191403 67 353 1.0 2.0 0.00 0.00 0.00 92 1023.1
20260902191324 67 353 1.0 2.0 0.00 0.00 0.00 92 1023.1
20260902191224 67 342 1.0 2.0 0.00 0.00 0.00 91 1023.2
20260902191124 67 341 1.0 2.0 0.00 0.00 0.00 91 1023.3
20260902191003 67 341 1.0 2.0 0.00 0.00 0.00 91 1023.3
20260902190924 67 338 1.0 2.0 0.00 0.00 0.00 91 1023.2
20260902190803 67 339 1.0 2.0 0.00 0.00 0.00 91 1023.3
20260902190703 67 343 1.0 2.0 0.00 0.00 0.00 91 1023.2
20260902190603 68 341 1.0 2.0 0.00 0.00 0.00 91 1023.2
20260902190503 68 342 1.0 2.0 0.00 0.00 0.00 91 1023.3
20260902190403 68 342 1.0 2.0 0.00 0.00 0.00 91 1023.5
20260902190303 68 343 1.0 2.0 0.00 0.00 0.00 90 1023.5
20260902190203 68 349 1.0 2.0 0.00 0.00 0.00 90 1023.3
20260902190003 68 350 1.0 2.0 0.00 0.00 0.00 90 1023.3
20260902185903 68 349 1.0 2.0 0.00 0.00 0.00 90 1023.3
20260902185824 68 349 1.0 2.0 0.00 0.00 0.00 90 1023.3
20260902185703 68 347 1.0 2.0 0.00 0.00 0.00 90 1023.6
20260902185603 68 347 1.0 2.0 0.00 0.00 0.00 89 1023.2
20260902185503 69 348 1.0 2.0 0.00 0.00 0.00 89 1023.3
20260902185403 69 348 1.0 2.0 0.00 0.00 0.00 89 1023.3
20260902185306 69 348 1.0 2.0 0.00 0.00 0.00 89 1023.2
20260902185204 69 347 1.0 2.0 0.00 0.00 0.00 89 1023.5
20260902185103 69 345 1.0 2.0 0.00 0.00 0.00 88 1023.3
20260902185025 69 343 1.0 2.0 0.00 0.00 0.00 88 1023.5
20260902184903 69 343 1.0 2.0 0.00 0.00 0.00 88 1023.5
20260902184824 69 343 1.0 2.0 0.00 0.00 0.00 87 1023.5
20260902184703 70 342 1.0 2.0 0.00 0.00 0.00 87 1023.5
20260902184603 70 331 1.0 3.0 0.00 0.00 0.00 87 1023.3
20260902184503 70 330 1.0 3.0 0.00 0.00 0.00 87 1023.3
20260902184403 70 331 1.0 3.0 0.00 0.00 0.00 86 1023.3
20260902184303 70 333 1.0 3.0 0.00 0.00 0.00 86 1023.1
20260902184203 70 332 1.0 3.0 0.00 0.00 0.00 86 1023.3
20260902184103 70 332 1.0 3.0 0.00 0.00 0.00 86 1023.5
20260902184003 71 334 1.0 3.0 0.00 0.00 0.00 86 1023.3
20260902183903 71 335 1.0 3.0 0.00 0.00 0.00 86 1023.2
20260902183803 71 335 1.0 3.0 0.00 0.00 0.00 86 1023.2
20260902183703 71 335 1.0 3.0 0.00 0.00 0.00 86 1023.2
20260902183603 71 336 1.0 3.0 0.00 0.00 0.00 85 1023.2
20260902183503 71 350 1.0 3.0 0.00 0.00 0.00 85 1023.3
20260902183403 71 351 1.0 3.0 0.00 0.00 0.00 85 1023.2
20260902183303 71 338 1.0 3.0 0.00 0.00 0.00 85 1023.2
20260902183203 71 336 1.0 3.0 0.00 0.00 0.00 85 1023.2
20260902183103 71 336 1.0 3.0 0.00 0.00 0.00 85 1023.3
20260902183003 71 332 2.0 3.0 0.00 0.00 0.00 85 1023.3
20260902182924 71 317 2.0 6.0 0.00 0.00 0.00 85 1023.3
20260902182803 71 314 2.0 6.0 0.00 0.00 0.00 85 1023.3
20260902182703 71 317 2.0 6.0 0.00 0.00 0.00 85 1023.3
20260902182603 71 319 2.0 6.0 0.00 0.00 0.00 84 1023.5
20260902182524 71 316 2.0 6.0 0.00 0.00 0.00 85 1023.2
20260902182403 71 315 2.0 6.0 0.00 0.00 0.00 84 1023.6
20260902182306 71 318 2.0 6.0 0.00 0.00 0.00 84 1023.5
20260902182203 71 318 2.0 6.0 0.00 0.00 0.00 84 1023.5
20260902182124 71 317 2.0 6.0 0.00 0.00 0.00 84 1023.5
20260902182004 72 318 2.0 6.0 0.00 0.00 0.00 83 1023.5
20260902181903 72 328 2.0 4.0 0.00 0.00 0.00 83 1023.3
20260902181803 72 333 2.0 4.0 0.00 0.00 0.00 83 1023.6
20260902181703 72 324 2.0 4.0 0.00 0.00 0.00 84 1023.3
20260902181603 72 317 2.0 4.0 0.00 0.00 0.00 83 1023.6
20260902181503 72 316 2.0 4.0 0.00 0.00 0.00 84 1023.3
20260902181424 72 316 2.0 4.0 0.00 0.00 0.00 84 1023.3
20260902181303 72 316 2.0 4.0 0.00 0.00 0.00 84 1023.3
20260902181203 71 317 2.0 4.0 0.00 0.00 0.00 84 1023.5
20260902181124 71 317 2.0 4.0 0.00 0.00 0.00 84 1023.5
20260902181003 71 310 2.0 4.0 0.00 0.00 0.00 84 1023.6
20260902180924 72 310 2.0 4.0 0.00 0.00 0.00 84 1023.6
20260902180803 72 312 2.0 4.0 0.00 0.00 0.00 84 1023.7
20260902180703 72 311 2.0 4.0 0.00 0.00 0.00 83 1023.7
20260902180624 72 314 2.0 4.0 0.00 0.00 0.00 83 1023.7
20260902180503 72 318 2.0 3.0 0.00 0.00 0.00 82 1023.5
20260902180403 72 318 2.0 3.0 0.00 0.00 0.00 82 1023.5
20260902180324 72 318 2.0 3.0 0.00 0.00 0.00 82 1023.5
20260902180203 73 308 2.0 4.0 0.00 0.00 0.00 82 1023.6
20260902180005 72 310 2.0 4.0 0.00 0.00 0.00 82 1023.7
20260902175903 72 309 2.0 4.0 0.00 0.00 0.00 82 1023.3
20260902175803 72 309 2.0 4.0 0.00 0.00 0.00 82 1023.3
20260902175724 72 309 2.0 4.0 0.00 0.00 0.00 82 1023.6
20260902175625 72 306 2.0 4.0 0.00 0.00 0.00 82 1023.6
20260902175503 72 306 2.0 4.0 0.00 0.00 0.00 82 1023.7
20260902175403 73 309 2.0 4.0 0.00 0.00 0.00 82 1023.6
20260902175307 73 309 2.0 4.0 0.00 0.00 0.00 82 1023.6
20260902175204 73 308 2.0 4.0 0.00 0.00 0.00 82 1023.6
20260902175124 73 315 2.0 4.0 0.00 0.00 0.00 82 1023.7
20260902175024 73 312 2.0 4.0 0.00 0.00 0.00 82 1023.6
20260902174903 73 306 2.0 6.0 0.00 0.00 0.00 82 1023.6
20260902174824 73 308 2.0 6.0 0.00 0.00 0.00 82 1023.7
20260902174703 73 302 2.0 6.0 0.00 0.00 0.00 82 1023.6
20260902174603 73 305 2.0 6.0 0.00 0.00 0.00 82 1023.7
20260902174503 72 305 3.0 6.0 0.00 0.00 0.00 83 1023.6
20260902174424 72 305 3.0 6.0 0.00 0.00 0.00 83 1023.6
20260902174303 72 300 2.0 6.0 0.00 0.00 0.00 82 1023.7
20260902174224 72 300 2.0 6.0 0.00 0.00 0.00 82 1023.7
20260902174103 72 301 2.0 6.0 0.00 0.00 0.00 83 1023.8
20260902174024 72 300 3.0 6.0 0.00 0.00 0.00 83 1023.6
20260902173924 72 305 2.0 6.0 0.00 0.00 0.00 83 1023.5
20260902173803 72 313 3.0 6.0 0.00 0.00 0.00 83 1023.7
20260902173724 72 306 3.0 6.0 0.00 0.00 0.00 82 1023.3
20260902173603 73 313 3.0 6.0 0.00 0.00 0.00 82 1023.6
20260902173503 73 313 2.0 6.0 0.00 0.00 0.00 82 1023.7
20260902173403 73 314 2.0 6.0 0.00 0.00 0.00 82 1023.6
20260902173303 73 309 3.0 6.0 0.00 0.00 0.00 82 1023.6
20260902173203 73 312 3.0 6.0 0.00 0.00 0.00 81 1023.8
20260902173103 73 305 3.0 6.0 0.00 0.00 0.00 81 1023.7
20260902173003 74 304 3.0 6.0 0.00 0.00 0.00 81 1023.5
20260902172924 74 304 3.0 6.0 0.00 0.00 0.00 81 1023.5
20260902172803 74 293 3.0 6.0 0.00 0.00 0.00 80 1023.7
20260902172703 73 297 3.0 6.0 0.00 0.00 0.00 81 1023.6
20260902172603 73 297 3.0 6.0 0.00 0.00 0.00 81 1023.6
20260902172524 73 301 3.0 6.0 0.00 0.00 0.00 81 1023.6
20260902172403 73 297 3.0 6.0 0.00 0.00 0.00 81 1023.7
20260902172324 73 291 3.0 6.0 0.00 0.00 0.00 81 1023.7
20260902172224 73 289 3.0 6.0 0.00 0.00 0.00 82 1023.6
20260902172103 73 283 3.0 7.0 0.00 0.00 0.00 81 1023.7
20260902172004 73 287 3.0 7.0 0.00 0.00 0.00 81 1023.6
20260902171924 73 290 4.0 7.0 0.00 0.00 0.00 81 1023.6
20260902171803 73 288 3.0 7.0 0.00 0.00 0.00 81 1023.6
20260902171703 73 293 3.0 7.0 0.00 0.00 0.00 81 1023.6
20260902171603 73 285 4.0 8.0 0.00 0.00 0.00 81 1023.6
20260902171524 73 285 4.0 8.0 0.00 0.00 0.00 81 1023.6
20260902171424 73 282 4.0 8.0 0.00 0.00 0.00 81 1023.7
20260902171324 73 281 4.0 8.0 0.00 0.00 0.00 81 1023.6
20260902171203 73 280 4.0 8.0 0.00 0.00 0.00 81 1023.7
20260902171103 73 288 4.0 8.0 0.00 0.00 0.00 81 1023.6
20260902171003 73 288 4.0 8.0 0.00 0.00 0.00 81 1023.6
20260902170903 73 289 4.0 8.0 0.00 0.00 0.00 81 1023.6
20260902170803 73 284 4.0 8.0 0.00 0.00 0.00 81 1023.8
20260902170703 74 287 4.0 8.0 0.00 0.00 0.00 80 1023.6
20260902170603 74 292 4.0 8.0 0.00 0.00 0.00 80 1023.7
20260902170503 74 304 3.0 7.0 0.00 0.00 0.00 80 1023.5
20260902170403 74 304 3.0 7.0 0.00 0.00 0.00 79 1023.6
20260902170324 74 304 3.0 7.0 0.00 0.00 0.00 79 1023.6
20260902170224 74 308 3.0 7.0 0.00 0.00 0.00 79 1023.7
20260902170124 74 314 3.0 6.0 0.00 0.00 0.00 79 1023.6
20260902170003 74 305 3.0 6.0 0.00 0.00 0.00 80 1023.7
20260902165903 74 305 4.0 6.0 0.00 0.00 0.00 79 1023.7
20260902165803 74 315 4.0 8.0 0.00 0.00 0.00 80 1023.7
20260902165703 74 313 4.0 8.0 0.00 0.00 0.00 79 1023.7
20260902165624 74 310 4.0 8.0 0.00 0.00 0.00 79 1023.5
20260902165503 74 307 4.0 8.0 0.00 0.00 0.00 79 1023.7
20260902165403 74 312 4.0 8.0 0.00 0.00 0.00 79 1023.6
20260902165308 74 311 4.0 8.0 0.00 0.00 0.00 79 1023.5
20260902165203 74 310 3.0 8.0 0.00 0.00 0.00 78 1023.6
20260902165103 75 308 4.0 8.0 0.00 0.00 0.00 78 1023.3
20260902165024 75 308 4.0 8.0 0.00 0.00 0.00 78 1023.3
20260902164903 75 309 3.0 8.0 0.00 0.00 0.00 78 1023.6
20260902164803 74 306 3.0 7.0 0.00 0.00 0.00 79 1023.3
20260902164703 74 302 3.0 7.0 0.00 0.00 0.00 79 1023.6
20260902164603 74 301 3.0 7.0 0.00 0.00 0.00 79 1023.6
20260902164503 74 301 3.0 7.0 0.00 0.00 0.00 79 1023.6
20260902164403 74 302 3.0 7.0 0.00 0.00 0.00 79 1023.5
20260902164303 75 295 3.0 7.0 0.00 0.00 0.00 78 1023.6
20260902164203 75 295 3.0 7.0 0.00 0.00 0.00 78 1023.6
20260902164103 75 300 3.0 7.0 0.00 0.00 0.00 78 1023.5
20260902164003 75 300 3.0 6.0 0.00 0.00 0.00 78 1023.3
20260902163903 75 304 3.0 6.0 0.00 0.00 0.00 78 1023.6
20260902163803 75 309 3.0 6.0 0.00 0.00 0.00 78 1023.5
20260902163703 75 297 3.0 8.0 0.00 0.00 0.00 78 1023.5
20260902163603 74 301 3.0 8.0 0.00 0.00 0.00 79 1023.6
20260902163503 74 301 3.0 8.0 0.00 0.00 0.00 79 1023.3
20260902163403 74 301 4.0 8.0 0.00 0.00 0.00 79 1023.3
20260902163303 74 300 3.0 8.0 0.00 0.00 0.00 79 1023.5
20260902163203 74 296 3.0 8.0 0.00 0.00 0.00 79 1023.2
20260902163124 74 296 3.0 8.0 0.00 0.00 0.00 79 1023.2
20260902163003 74 291 3.0 8.0 0.00 0.00 0.00 79 1023.5
20260902162903 74 298 3.0 8.0 0.00 0.00 0.00 79 1023.5
20260902162803 75 296 3.0 8.0 0.00 0.00 0.00 79 1023.3
20260902162703 75 296 3.0 8.0 0.00 0.00 0.00 79 1023.3
20260902162603 75 307 3.0 7.0 0.00 0.00 0.00 79 1023.6
20260902162524 75 306 3.0 6.0 0.00 0.00 0.00 79 1023.7
20260902162424 75 299 3.0 6.0 0.00 0.00 0.00 79 1023.7
20260902162306 75 300 3.0 7.0 0.00 0.00 0.00 79 1023.7
20260902162203 75 298 3.0 8.0 0.00 0.00 0.00 78 1023.3
20260902162103 76 311 3.0 8.0 0.00 0.00 0.00 79 1023.6
20260902162003 76 315 3.0 8.0 0.00 0.00 0.00 78 1023.7
20260902161924 75 305 3.0 8.0 0.00 0.00 0.00 79 1023.6
20260902161803 75 308 3.0 8.0 0.00 0.00 0.00 80 1023.6
20260902161703 74 304 3.0 8.0 0.00 0.00 0.00 81 1023.6
20260902161603 74 306 3.0 8.0 0.00 0.00 0.00 82 1023.5
20260902161503 74 306 3.0 8.0 0.00 0.00 0.00 81 1023.6
20260902161403 74 308 3.0 8.0 0.00 0.00 0.00 81 1023.5
20260902161303 74 310 3.0 8.0 0.00 0.00 0.00 80 1023.6
20260902161203 74 314 3.0 6.0 0.00 0.00 0.00 81 1023.7
20260902161103 74 314 3.0 6.0 0.00 0.00 0.00 81 1023.7
20260902161003 74 315 3.0 6.0 0.00 0.00 0.00 81 1023.6
20260902160903 74 306 3.0 7.0 0.00 0.00 0.00 81 1023.6
20260902160824 74 307 4.0 7.0 0.00 0.00 0.00 81 1023.2
20260902160703 74 303 4.0 7.0 0.00 0.00 0.00 82 1023.7
20260902160603 74 308 4.0 7.0 0.00 0.00 0.00 82 1023.7
20260902160504 74 307 4.0 7.0 0.00 0.00 0.00 82 1023.7
20260902160403 74 306 4.0 7.0 0.00 0.00 0.00 82 1023.6
20260902160303 74 303 4.0 7.0 0.00 0.00 0.00 82 1023.6
20260902160203 74 302 4.0 7.0 0.00 0.00 0.00 82 1023.8
20260902160124 74 304 4.0 7.0 0.00 0.00 0.00 82 1023.7
20260902160003 74 298 4.0 7.0 0.00 0.00 0.00 82 1023.3
20260902155903 74 299 4.0 7.0 0.00 0.00 0.00 81 1023.6
20260902155803 74 296 3.0 6.0 0.00 0.00 0.00 81 1023.8
20260902155724 74 296 3.0 6.0 0.00 0.00 0.00 81 1023.8
20260902155603 74 303 3.0 6.0 0.00 0.00 0.00 81 1023.7
20260902155503 74 302 3.0 6.0 0.00 0.00 0.00 81 1023.6
20260902155403 74 302 3.0 6.0 0.00 0.00 0.00 81 1023.6
20260902155306 74 300 3.0 6.0 0.00 0.00 0.00 81 1023.9
20260902155203 74 294 4.0 9.0 0.00 0.00 0.00 81 1023.6
20260902155103 74 288 4.0 9.0 0.00 0.00 0.00 81 1023.8
20260902155003 74 291 4.0 9.0 0.00 0.00 0.00 81 1023.8
20260902154924 74 293 4.0 9.0 0.00 0.00 0.00 81 1023.7
20260902154803 74 297 4.0 9.0 0.00 0.00 0.00 82 1023.8
20260902154703 74 311 4.0 9.0 0.00 0.00 0.00 83 1023.7
20260902154603 73 303 4.0 9.0 0.00 0.00 0.00 82 1023.7
20260902154524 73 302 4.0 9.0 0.00 0.00 0.00 83 1023.7
20260902154403 74 294 4.0 9.0 0.00 0.00 0.00 82 1023.8
20260902154303 74 296 4.0 9.0 0.00 0.00 0.00 81 1023.8
20260902154203 75 308 4.0 7.0 0.00 0.00 0.00 80 1023.8
20260902154103 75 312 3.0 7.0 0.00 0.00 0.00 80 1023.7
20260902154003 75 299 3.0 9.0 0.00 0.00 0.00 81 1023.9
20260902153903 74 293 4.0 9.0 0.00 0.00 0.00 81 1023.8
20260902153803 74 293 4.0 9.0 0.00 0.00 0.00 81 1023.8
20260902153724 74 285 4.0 9.0 0.00 0.00 0.00 82 1023.9
20260902153603 74 279 4.0 9.0 0.00 0.00 0.00 82 1024.0
20260902153524 74 279 4.0 9.0 0.00 0.00 0.00 81 1023.9
20260902153403 74 275 4.0 9.0 0.00 0.00 0.00 81 1024.0
20260902153304 74 270 4.0 9.0 0.00 0.00 0.00 81 1023.8
20260902153203 74 270 4.0 9.0 0.00 0.00 0.00 82 1023.8
20260902153103 74 268 4.0 9.0 0.00 0.00 0.00 82 1023.8
20260902153024 74 272 4.0 9.0 0.00 0.00 0.00 81 1023.7
20260902152903 74 284 3.0 7.0 0.00 0.00 0.00 81 1023.8
20260902152803 74 299 3.0 7.0 0.00 0.00 0.00 81 1023.8
20260902152703 75 315 3.0 6.0 0.00 0.00 0.00 81 1023.7
20260902152624 75 315 3.0 6.0 0.00 0.00 0.00 81 1023.7
20260902152524 75 307 3.0 7.0 0.00 0.00 0.00 81 1023.8
20260902152403 75 312 3.0 7.0 0.00 0.00 0.00 80 1023.8
20260902152307 75 318 3.0 7.0 0.00 0.00 0.00 81 1023.7
20260902152203 75 318 3.0 7.0 0.00 0.00 0.00 81 1023.7
20260902152103 75 313 3.0 7.0 0.00 0.00 0.00 80 1023.7
20260902152003 75 316 3.0 7.0 0.00 0.00 0.00 80 1023.9
20260902151903 75 304 3.0 7.0 0.00 0.00 0.00 81 1023.7
20260902151803 75 301 3.0 7.0 0.00 0.00 0.00 81 1023.9
20260902151703 75 298 3.0 7.0 0.00 0.00 0.00 81 1023.8
20260902151603 75 300 3.0 7.0 0.00 0.00 0.00 80 1023.8
20260902151503 75 313 3.0 7.0 0.00 0.00 0.00 80 1023.9
20260902151403 75 318 3.0 7.0 0.00 0.00 0.00 80 1023.9
20260902151303 75 317 3.0 7.0 0.00 0.00 0.00 79 1023.7
20260902151203 75 316 4.0 7.0 0.00 0.00 0.00 79 1023.9
20260902151103 75 322 3.0 7.0 0.00 0.00 0.00 80 1023.8
20260902151003 75 319 3.0 7.0 0.00 0.00 0.00 79 1024.0
20260902150903 75 331 3.0 7.0 0.00 0.00 0.00 80 1023.9
20260902150803 75 338 3.0 7.0 0.00 0.00 0.00 80 1023.9
20260902150703 76 343 3.0 7.0 0.00 0.00 0.00 79 1023.9
20260902150603 76 343 3.0 7.0 0.00 0.00 0.00 79 1023.9
20260902150524 76 342 3.0 7.0 0.00 0.00 0.00 79 1023.9
20260902150403 76 337 3.0 4.0 0.00 0.00 0.00 79 1023.9
20260902145803 76 308 3.0 6.0 0.00 0.00 0.00 78 1023.9
20260902145703 76 314 3.0 6.0 0.00 0.00 0.00 78 1023.8
20260902145624 76 318 3.0 7.0 0.00 0.00 0.00 78 1024.0
20260902145503 76 313 3.0 7.0 0.00 0.00 0.00 79 1023.9
20260902145403 75 312 4.0 7.0 0.00 0.00 0.00 79 1023.9
20260902145305 75 308 4.0 10.0 0.00 0.00 0.00 80 1023.9
20260902145203 75 311 4.0 10.0 0.00 0.00 0.00 79 1024.0
20260902145103 75 314 4.0 10.0 0.00 0.00 0.00 79 1023.8
20260902145003 75 314 4.0 10.0 0.00 0.00 0.00 79 1023.8
20260902144903 75 318 4.0 10.0 0.00 0.00 0.00 79 1023.8
20260902144803 75 322 4.0 10.0 0.00 0.00 0.00 79 1023.9
20260902144724 76 330 3.0 10.0 0.00 0.00 0.00 79 1024.0
20260902144603 76 326 3.0 10.0 0.00 0.00 0.00 78 1023.9
20260902144503 76 321 3.0 10.0 0.00 0.00 0.00 78 1024.0
20260902144403 76 319 3.0 10.0 0.00 0.00 0.00 78 1023.9
20260902144303 76 315 3.0 10.0 0.00 0.00 0.00 77 1023.8
20260902144203 76 320 3.0 9.0 0.00 0.00 0.00 79 1023.9
20260902144124 76 323 3.0 9.0 0.00 0.00 0.00 79 1023.8
20260902144003 76 322 3.0 9.0 0.00 0.00 0.00 78 1024.0
20260902143903 75 325 4.0 9.0 0.00 0.00 0.00 80 1023.9
20260902143803 75 328 4.0 9.0 0.00 0.00 0.00 80 1024.1
20260902143703 74 330 4.0 9.0 0.00 0.00 0.00 81 1024.1
20260902143603 74 336 4.0 9.0 0.00 0.00 0.00 80 1024.0
20260902143503 74 342 4.0 9.0 0.00 0.00 0.00 80 1024.0
20260902143403 74 342 4.0 9.0 0.00 0.00 0.00 80 1024.0
20260902143303 74 349 4.0 9.0 0.00 0.00 0.00 81 1024.1
20260902143203 74 356 4.0 9.0 0.00 0.00 0.00 80 1024.0
20260902143103 74 357 3.0 9.0 0.00 0.00 0.00 81 1024.2
20260902143003 74 357 3.0 9.0 0.00 0.00 0.00 80 1024.2
20260902142903 74 1 3.0 9.0 0.00 0.00 0.00 80 1024.0
20260902142803 74 357 3.0 9.0 0.00 0.00 0.00 79 1024.0
20260902142705 75 354 3.0 9.0 0.00 0.00 0.00 79 1023.9
20260902142605 76 354 3.0 9.0 0.00 0.00 0.00 78 1024.1
20260902142503 76 344 2.0 7.0 0.00 0.00 0.00 78 1024.0
20260902142403 76 346 2.0 7.0 0.00 0.00 0.00 79 1024.2
20260902142306 76 345 2.0 7.0 0.00 0.00 0.00 77 1024.2
20260902142203 76 341 2.0 8.0 0.00 0.00 0.00 79 1024.1
20260902142103 76 340 3.0 8.0 0.00 0.00 0.00 78 1024.1
20260902142003 76 342 3.0 8.0 0.00 0.00 0.00 76 1024.3
20260902141903 76 345 3.0 8.0 0.00 0.00 0.00 78 1024.3
20260902141803 76 348 3.0 8.0 0.00 0.00 0.00 77 1024.2
20260902141703 76 346 3.0 8.0 0.00 0.00 0.00 78 1024.2
20260902141603 75 347 3.0 8.0 0.00 0.00 0.00 78 1024.0
20260902141524 75 353 3.0 8.0 0.00 0.00 0.00 79 1024.0
20260902141403 75 351 3.0 8.0 0.00 0.00 0.00 79 1024.1
20260902141303 75 347 3.0 8.0 0.00 0.00 0.00 79 1024.1
20260902141203 75 348 3.0 7.0 0.00 0.00 0.00 81 1024.0
20260902141103 75 344 3.0 7.0 0.00 0.00 0.00 80 1024.2
20260902141003 75 339 3.0 7.0 0.00 0.00 0.00 79 1023.9
20260902140903 75 337 3.0 7.0 0.00 0.00 0.00 79 1023.9
20260902140803 75 329 3.0 7.0 0.00 0.00 0.00 79 1024.0
20260902140724 75 329 3.0 7.0 0.00 0.00 0.00 79 1024.0
20260902140624 76 334 3.0 7.0 0.00 0.00 0.00 77 1024.0
20260902140503 76 326 2.0 7.0 0.00 0.00 0.00 77 1024.2
20260902140424 76 326 2.0 7.0 0.00 0.00 0.00 77 1024.2
20260902140303 76 324 2.0 7.0 0.00 0.00 0.00 78 1024.1
20260902140203 76 320 2.0 7.0 0.00 0.00 0.00 77 1024.1
20260902140003 76 329 2.0 7.0 0.00 0.00 0.00 79 1024.1
20260902135903 76 338 3.0 7.0 0.00 0.00 0.00 78 1024.2
20260902135824 76 338 3.0 7.0 0.00 0.00 0.00 78 1024.1
20260902135703 76 338 2.0 6.0 0.00 0.00 0.00 78 1024.1
20260902135603 76 336 3.0 7.0 0.00 0.00 0.00 77 1024.2
20260902135503 76 336 2.0 7.0 0.00 0.00 0.00 78 1024.1
20260902135403 76 338 3.0 7.0 0.00 0.00 0.00 77 1024.2
20260902135306 76 339 2.0 7.0 0.00 0.00 0.00 78 1024.1
20260902135203 76 340 3.0 7.0 0.00 0.00 0.00 78 1024.1
20260902135103 75 347 3.0 7.0 0.00 0.00 0.00 78 1024.2
20260902135003 75 342 3.0 7.0 0.00 0.00 0.00 78 1024.1
20260902134903 75 327 3.0 9.0 0.00 0.00 0.00 78 1024.1
20260902134803 75 326 3.0 9.0 0.00 0.00 0.00 78 1024.3
20260902134724 75 326 3.0 9.0 0.00 0.00 0.00 78 1024.3
20260902134603 75 329 3.0 9.0 0.00 0.00 0.00 77 1024.1
20260902134503 76 330 3.0 9.0 0.00 0.00 0.00 79 1024.2
20260902134403 75 330 3.0 9.0 0.00 0.00 0.00 78 1024.2
20260902134303 75 330 3.0 9.0 0.00 0.00 0.00 78 1024.3
20260902134203 75 334 3.0 9.0 0.00 0.00 0.00 78 1024.1
20260902134103 75 332 3.0 9.0 0.00 0.00 0.00 78 1024.2
20260902134024 76 328 3.0 9.0 0.00 0.00 0.00 78 1024.3
20260902133924 76 331 3.0 9.0 0.00 0.00 0.00 77 1024.4
20260902133824 75 347 3.0 7.0 0.00 0.00 0.00 79 1024.2
20260902133703 75 350 3.0 7.0 0.00 0.00 0.00 80 1024.4
20260902133603 75 351 4.0 7.0 0.00 0.00 0.00 79 1024.3
20260902133503 75 350 4.0 8.0 0.00 0.00 0.00 80 1024.2
20260902133403 74 351 4.0 8.0 0.00 0.00 0.00 81 1024.3
20260902133303 74 348 4.0 8.0 0.00 0.00 0.00 81 1024.3
20260902133203 74 348 4.0 8.0 0.00 0.00 0.00 81 1024.1
20260902133103 73 351 4.0 8.0 0.00 0.00 0.00 82 1024.2
20260902133003 73 351 4.0 8.0 0.00 0.00 0.00 82 1024.2
20260902132903 73 346 4.0 8.0 0.00 0.00 0.00 82 1024.2
20260902132803 73 345 4.0 8.0 0.00 0.00 0.00 81 1024.2
20260902132703 74 343 4.0 8.0 0.00 0.00 0.00 80 1024.3
20260902132624 74 340 4.0 8.0 0.00 0.00 0.00 80 1024.3
20260902132524 74 344 4.0 8.0 0.00 0.00 0.00 79 1024.2
20260902132403 74 338 4.0 7.0 0.00 0.00 0.00 80 1024.2
20260902132306 74 336 4.0 7.0 0.00 0.00 0.00 81 1024.2
20260902132203 74 341 4.0 7.0 0.00 0.00 0.00 81 1024.4
20260902132103 74 341 4.0 7.0 0.00 0.00 0.00 81 1024.0
20260902132003 73 343 4.0 7.0 0.00 0.00 0.00 81 1024.2
20260902131903 73 349 4.0 8.0 0.00 0.00 0.00 81 1024.2
20260902131803 73 349 5.0 8.0 0.00 0.00 0.00 81 1024.2
20260902131703 73 349 4.0 8.0 0.00 0.00 0.00 80 1024.2
20260902131603 74 351 4.0 8.0 0.00 0.00 0.00 81 1024.3
20260902131503 74 351 4.0 8.0 0.00 0.00 0.00 80 1024.2
20260902131403 74 352 4.0 8.0 0.00 0.00 0.00 80 1024.2
20260902131303 73 355 4.0 8.0 0.00 0.00 0.00 80 1024.2
20260902131203 74 355 4.0 8.0 0.00 0.00 0.00 80 1024.1
20260902131103 74 355 4.0 8.0 0.00 0.00 0.00 79 1024.2
20260902131003 74 355 4.0 8.0 0.00 0.00 0.00 79 1024.2
20260902130903 74 353 4.0 8.0 0.00 0.00 0.00 79 1024.1
20260902130824 73 345 4.0 8.0 0.00 0.00 0.00 80 1024.1
20260902130703 73 348 4.0 8.0 0.00 0.00 0.00 79 1024.2
20260902130603 73 343 4.0 8.0 0.00 0.00 0.00 79 1024.1
20260902130524 74 344 4.0 8.0 0.00 0.00 0.00 79 1024.1
20260902130424 74 340 4.0 8.0 0.00 0.00 0.00 78 1024.1
20260902130324 74 344 4.0 8.0 0.00 0.00 0.00 78 1024.3
20260902130224 73 342 4.0 8.0 0.00 0.00 0.00 78 1024.3
20260902130103 73 343 4.0 8.0 0.00 0.00 0.00 79 1024.2
20260902130003 74 339 3.0 8.0 0.00 0.00 0.00 78 1024.2
20260902125903 74 340 3.0 8.0 0.00 0.00 0.00 78 1024.2
20260902125803 74 350 3.0 8.0 0.00 0.00 0.00 78 1024.1
20260902125703 74 349 3.0 8.0 0.00 0.00 0.00 77 1024.1
20260902125603 74 350 3.0 7.0 0.00 0.00 0.00 78 1024.3
20260902125503 74 345 3.0 7.0 0.00 0.00 0.00 78 1024.0
20260902125424 74 345 3.0 7.0 0.00 0.00 0.00 78 1024.0
20260902125305 74 345 3.0 7.0 0.00 0.00 0.00 78 1024.2
20260902125224 74 346 3.0 7.0 0.00 0.00 0.00 79 1024.2
20260902125103 74 350 4.0 7.0 0.00 0.00 0.00 77 1024.2
20260902125003 74 348 4.0 7.0 0.00 0.00 0.00 78 1024.1
20260902124903 74 348 4.0 7.0 0.00 0.00 0.00 78 1024.2
20260902124803 73 348 4.0 7.0 0.00 0.00 0.00 78 1024.2
20260902124703 73 349 5.0 8.0 0.00 0.00 0.00 77 1024.3
20260902124603 73 348 5.0 8.0 0.00 0.00 0.00 78 1024.2
20260902124504 73 351 5.0 8.0 0.00 0.00 0.00 79 1024.2
20260902124403 73 354 5.0 8.0 0.00 0.00 0.00 79 1024.2
20260902124303 72 352 5.0 8.0 0.00 0.00 0.00 79 1024.3
20260902124203 73 354 5.0 8.0 0.00 0.00 0.00 78 1024.1
20260902124124 73 354 5.0 8.0 0.00 0.00 0.00 78 1024.1
20260902124003 73 353 4.0 8.0 0.00 0.00 0.00 77 1024.4
20260902123903 73 354 5.0 8.0 0.00 0.00 0.00 77 1024.4
20260902123803 73 354 5.0 8.0 0.00 0.00 0.00 77 1024.4
20260902123703 74 353 5.0 8.0 0.00 0.00 0.00 77 1024.2
20260902123603 73 350 4.0 8.0 0.00 0.00 0.00 77 1024.3
20260902123503 73 353 4.0 8.0 0.00 0.00 0.00 77 1024.3
20260902123424 74 350 4.0 8.0 0.00 0.00 0.00 77 1024.3
20260902123303 74 349 4.0 8.0 0.00 0.00 0.00 76 1024.3
20260902123203 74 352 4.0 8.0 0.00 0.00 0.00 76 1024.3
20260902123103 74 349 4.0 8.0 0.00 0.00 0.00 75 1024.3
20260902123024 74 351 4.0 8.0 0.00 0.00 0.00 76 1024.3
20260902122903 74 349 4.0 8.0 0.00 0.00 0.00 75 1024.5
20260902122803 74 347 4.0 7.0 0.00 0.00 0.00 74 1024.3
20260902122703 74 347 3.0 7.0 0.00 0.00 0.00 74 1024.2
20260902122603 74 348 3.0 7.0 0.00 0.00 0.00 74 1024.4
20260902122503 74 343 3.0 7.0 0.00 0.00 0.00 72 1024.3
20260902122403 74 341 3.0 7.0 0.00 0.00 0.00 74 1024.4
20260902122324 74 341 3.0 7.0 0.00 0.00 0.00 74 1024.4
20260902122203 75 343 3.0 7.0 0.00 0.00 0.00 73 1024.2
20260902122103 75 342 3.0 6.0 0.00 0.00 0.00 74 1024.2
20260902122003 74 343 3.0 6.0 0.00 0.00 0.00 76 1024.5
20260902121903 75 345 3.0 6.0 0.00 0.00 0.00 75 1024.4
20260902121803 75 345 3.0 6.0 0.00 0.00 0.00 75 1024.4
20260902121703 74 350 3.0 6.0 0.00 0.00 0.00 73 1024.3
20260902121603 74 346 3.0 6.0 0.00 0.00 0.00 75 1024.3
20260902121503 74 347 3.0 6.0 0.00 0.00 0.00 74 1024.5
20260902121403 74 353 3.0 6.0 0.00 0.00 0.00 74 1024.3
20260902121303 74 356 3.0 6.0 0.00 0.00 0.00 73 1024.2
20260902121203 74 357 3.0 6.0 0.00 0.00 0.00 74 1024.4
20260902121103 75 356 3.0 6.0 0.00 0.00 0.00 72 1024.2
20260902121003 76 354 2.0 6.0 0.00 0.00 0.00 71 1024.3
20260902120903 76 352 2.0 6.0 0.00 0.00 0.00 72 1024.2
20260902120824 76 351 2.0 6.0 0.00 0.00 0.00 71 1024.1
20260902120724 76 351 2.0 6.0 0.00 0.00 0.00 71 1024.1
20260902120603 75 357 2.0 6.0 0.00 0.00 0.00 74 1024.2
20260902120503 75 350 2.0 6.0 0.00 0.00 0.00 71 1024.3
20260902120403 75 346 2.0 6.0 0.00 0.00 0.00 73 1024.4
20260902120303 75 345 2.0 6.0 0.00 0.00 0.00 72 1024.3
20260902120224 75 345 2.0 6.0 0.00 0.00 0.00 72 1024.3
20260902120003 75 344 2.0 6.0 0.00 0.00 0.00 72 1024.3
20260902115903 76 349 2.0 6.0 0.00 0.00 0.00 71 1024.5
20260902115803 76 347 2.0 6.0 0.00 0.00 0.00 71 1024.4
20260902115703 76 346 2.0 6.0 0.00 0.00 0.00 71 1024.4
20260902115603 76 344 2.0 6.0 0.00 0.00 0.00 70 1024.3
20260902115503 76 342 2.0 6.0 0.00 0.00 0.00 68 1024.4
20260902115403 76 347 2.0 6.0 0.00 0.00 0.00 70 1024.4
20260902115307 75 341 2.0 6.0 0.00 0.00 0.00 72 1024.5
20260902115203 76 342 2.0 6.0 0.00 0.00 0.00 70 1024.1
20260902115103 76 339 2.0 6.0 0.00 0.00 0.00 70 1024.5
20260902115003 76 339 2.0 6.0 0.00 0.00 0.00 70 1024.5
20260902114903 76 338 2.0 6.0 0.00 0.00 0.00 69 1024.6
20260902114803 76 336 1.0 3.0 0.00 0.00 0.00 70 1024.5
20260902114703 76 331 2.0 3.0 0.00 0.00 0.00 69 1024.3
20260902114603 76 329 2.0 3.0 0.00 0.00 0.00 72 1024.4
20260902114503 76 320 2.0 3.0 0.00 0.00 0.00 73 1024.4
20260902114424 76 325 2.0 4.0 0.00 0.00 0.00 71 1024.6
20260902114303 76 328 2.0 4.0 0.00 0.00 0.00 70 1024.6
20260902114203 76 332 2.0 4.0 0.00 0.00 0.00 73 1024.5
20260902114103 75 332 2.0 4.0 0.00 0.00 0.00 71 1024.5
20260902114003 75 335 2.0 4.0 0.00 0.00 0.00 72 1024.4
20260902113903 74 324 2.0 4.0 0.00 0.00 0.00 74 1024.4
20260902113803 74 322 2.0 4.0 0.00 0.00 0.00 72 1024.5
20260902113703 74 322 2.0 4.0 0.00 0.00 0.00 72 1024.5
20260902113603 75 325 2.0 4.0 0.00 0.00 0.00 71 1024.4
20260902113503 75 333 2.0 4.0 0.00 0.00 0.00 72 1024.4
20260902113403 74 330 2.0 4.0 0.00 0.00 0.00 73 1024.7
20260902113303 74 331 2.0 4.0 0.00 0.00 0.00 74 1024.7
20260902113203 74 329 2.0 4.0 0.00 0.00 0.00 74 1024.6
20260902113103 74 331 2.0 4.0 0.00 0.00 0.00 73 1024.6
20260902113003 75 330 2.0 4.0 0.00 0.00 0.00 71 1024.6
20260902112903 75 346 1.0 3.0 0.00 0.00 0.00 70 1024.7
20260902112824 75 348 1.0 2.0 0.00 0.00 0.00 72 1024.5
20260902112724 75 343 1.0 4.0 0.00 0.00 0.00 73 1024.5
20260902112603 74 332 2.0 4.0 0.00 0.00 0.00 73 1024.8
20260902112503 74 333 2.0 4.0 0.00 0.00 0.00 73 1024.6
20260902112424 74 337 2.0 6.0 0.00 0.00 0.00 73 1024.7
20260902112305 74 338 3.0 6.0 0.00 0.00 0.00 72 1024.7
20260902112203 74 341 3.0 6.0 0.00 0.00 0.00 73 1024.7
20260902112103 73 339 3.0 6.0 0.00 0.00 0.00 75 1024.6
20260902112003 73 339 3.0 6.0 0.00 0.00 0.00 76 1024.7
20260902111903 73 339 3.0 6.0 0.00 0.00 0.00 74 1024.7
20260902111803 73 342 3.0 6.0 0.00 0.00 0.00 74 1024.7
20260902111703 73 347 3.0 6.0 0.00 0.00 0.00 75 1024.7
20260902111603 73 353 2.0 6.0 0.00 0.00 0.00 75 1024.8
20260902111503 74 356 2.0 6.0 0.00 0.00 0.00 75 1024.7
20260902111403 74 356 2.0 6.0 0.00 0.00 0.00 75 1024.7
20260902111303 74 356 2.0 6.0 0.00 0.00 0.00 73 1024.8
20260902111203 74 358 2.0 4.0 0.00 0.00 0.00 75 1024.8
20260902111103 73 1 2.0 4.0 0.00 0.00 0.00 75 1024.6
20260902111003 73 5 2.0 4.0 0.00 0.00 0.00 73 1024.7
20260902110903 73 3 2.0 4.0 0.00 0.00 0.00 73 1024.7
20260902110803 74 5 2.0 4.0 0.00 0.00 0.00 72 1024.7
20260902110703 74 6 2.0 4.0 0.00 0.00 0.00 73 1024.7
20260902110603 73 6 2.0 4.0 0.00 0.00 0.00 73 1024.7
20260902110524 73 8 2.0 4.0 0.00 0.00 0.00 73 1024.7
20260902110403 73 9 2.0 4.0 0.00 0.00 0.00 73 1024.8
20260902110324 73 12 2.0 4.0 0.00 0.00 0.00 73 1024.8
20260902110203 74 15 2.0 4.0 0.00 0.00 0.00 72 1024.8
20260902110024 75 16 1.0 3.0 0.00 0.00 0.00 72 1024.7
20260902105903 74 16 1.0 3.0 0.00 0.00 0.00 70 1024.7
20260902105803 74 17 1.0 3.0 0.00 0.00 0.00 73 1024.7
20260902105703 74 15 2.0 3.0 0.00 0.00 0.00 71 1024.9
20260902105624 74 17 1.0 3.0 0.00 0.00 0.00 72 1024.7
20260902105503 74 14 1.0 3.0 0.00 0.00 0.00 72 1024.7
20260902105403 74 12 1.0 2.0 0.00 0.00 0.00 72 1024.8
20260902105306 74 7 1.0 2.0 0.00 0.00 0.00 72 1024.7
20260902105203 74 1 1.0 2.0 0.00 0.00 0.00 73 1024.7
20260902105103 73 1 1.0 2.0 0.00 0.00 0.00 74 1024.7
20260902105003 73 1 1.0 2.0 0.00 0.00 0.00 74 1024.8
20260902104903 73 357 1.0 2.0 0.00 0.00 0.00 74 1024.8
20260902104803 73 359 1.0 2.0 0.00 0.00 0.00 75 1024.8
20260902104703 73 5 1.0 3.0 0.00 0.00 0.00 76 1024.8
20260902104603 72 5 1.0 3.0 0.00 0.00 0.00 75 1024.7
20260902104503 72 5 1.0 3.0 0.00 0.00 0.00 75 1024.6
20260902104403 72 4 1.0 3.0 0.00 0.00 0.00 73 1024.7
20260902104303 72 6 1.0 3.0 0.00 0.00 0.00 73 1024.7
20260902104203 72 6 1.0 3.0 0.00 0.00 0.00 73 1024.8
20260902104103 72 7 1.0 3.0 0.00 0.00 0.00 74 1024.7
20260902104003 73 10 1.0 3.0 0.00 0.00 0.00 74 1024.9
20260902103903 73 21 1.0 3.0 0.00 0.00 0.00 74 1024.9
20260902103803 73 23 1.0 3.0 0.00 0.00 0.00 75 1024.8
20260902103703 73 28 1.0 3.0 0.00 0.00 0.00 74 1024.7
20260902103603 74 34 1.0 3.0 0.00 0.00 0.00 72 1024.8
20260902103503 75 37 1.0 3.0 0.00 0.00 0.00 70 1024.8
20260902103424 75 64 1.0 4.0 0.00 0.00 0.00 72 1024.8
20260902103324 74 68 1.0 4.0 0.00 0.00 0.00 73 1024.8
20260902103203 74 71 1.0 4.0 0.00 0.00 0.00 73 1024.8
20260902103103 73 74 1.0 4.0 0.00 0.00 0.00 74 1024.8
20260902103003 73 76 1.0 4.0 0.00 0.00 0.00 74 1024.7
20260902102903 73 77 1.0 4.0 0.00 0.00 0.00 74 1024.7
20260902102803 72 76 1.0 4.0 0.00 0.00 0.00 74 1024.8
20260902102703 72 74 1.0 4.0 0.00 0.00 0.00 76 1024.8
20260902102603 72 74 1.0 4.0 0.00 0.00 0.00 76 1024.8
20260902102503 72 66 1.0 4.0 0.00 0.00 0.00 74 1024.8
20260902102403 72 69 1.0 4.0 0.00 0.00 0.00 74 1024.6
20260902102307 72 47 1.0 2.0 0.00 0.00 0.00 75 1024.6
20260902102203 72 40 1.0 2.0 0.00 0.00 0.00 75 1024.7
20260902102103 72 34 1.0 2.0 0.00 0.00 0.00 74 1024.6
20260902102003 72 23 1.0 2.0 0.00 0.00 0.00 76 1024.9
20260902101903 71 18 1.0 2.0 0.00 0.00 0.00 77 1024.9
20260902101803 70 16 1.0 2.0 0.00 0.00 0.00 79 1025.0
20260902101703 70 17 1.0 2.0 0.00 0.00 0.00 78 1025.0
20260902101603 70 17 1.0 2.0 0.00 0.00 0.00 77 1024.7
20260902101503 71 17 1.0 2.0 0.00 0.00 0.00 78 1024.7
20260902101403 71 17 1.0 2.0 0.00 0.00 0.00 77 1024.9
20260902101324 71 18 1.0 2.0 0.00 0.00 0.00 78 1024.8
20260902101224 71 20 1.0 2.0 0.00 0.00 0.00 77 1024.8
20260902101103 71 20 1.0 2.0 0.00 0.00 0.00 79 1024.8
20260902101003 71 20 1.0 2.0 0.00 0.00 0.00 78 1024.8
20260902100903 71 21 1.0 2.0 0.00 0.00 0.00 77 1024.7
20260902100803 71 22 1.0 2.0 0.00 0.00 0.00 78 1024.7
20260902100703 72 26 1.0 2.0 0.00 0.00 0.00 77 1024.7
20260902100603 72 26 1.0 2.0 0.00 0.00 0.00 79 1025.0
20260902100503 71 30 1.0 2.0 0.00 0.00 0.00 78 1024.8
20260902100403 71 35 1.0 3.0 0.00 0.00 0.00 79 1024.7
20260902100303 70 56 1.0 3.0 0.00 0.00 0.00 78 1024.7
20260902100203 70 57 1.0 3.0 0.00 0.00 0.00 80 1024.7
20260902100003 70 66 1.0 3.0 0.00 0.00 0.00 80 1024.8
20260902095903 69 65 1.0 3.0 0.00 0.00 0.00 80 1024.8
20260902095803 69 65 2.0 3.0 0.00 0.00 0.00 79 1024.7
20260902095724 69 59 2.0 3.0 0.00 0.00 0.00 79 1024.8
20260902095624 69 72 2.0 3.0 0.00 0.00 0.00 81 1024.8
20260902095525 68 96 2.0 3.0 0.00 0.00 0.00 83 1024.8
20260902095403 68 106 2.0 3.0 0.00 0.00 0.00 82 1024.6
20260902095306 68 138 2.0 3.0 0.00 0.00 0.00 83 1024.6
20260902095203 68 157 2.0 3.0 0.00 0.00 0.00 87 1024.8
20260902095103 67 141 2.0 3.0 0.00 0.00 0.00 90 1024.8
20260902095003 67 165 2.0 3.0 0.00 0.00 0.00 93 1024.7
20260902094903 66 143 2.0 3.0 0.00 0.00 0.00 93 1024.8
20260902094803 66 122 2.0 3.0 0.00 0.00 0.00 95 1024.7
20260902094703 65 115 2.0 3.0 0.00 0.00 0.00 95 1024.7
20260902094603 65 104 2.0 3.0 0.00 0.00 0.00 95 1024.7
20260902094503 65 89 2.0 3.0 0.00 0.00 0.00 96 1024.6
20260902094403 65 75 1.0 3.0 0.00 0.00 0.00 97 1024.6
20260902094303 65 68 1.0 3.0 0.00 0.00 0.00 99 1024.6
20260902094224 65 68 1.0 3.0 0.00 0.00 0.00 99 1024.8
20260902094103 64 66 1.0 3.0 0.00 0.00 0.00 99 1024.9
20260902094003 64 60 1.0 3.0 0.00 0.00 0.00 99 1024.8
20260902093903 64 58 1.0 3.0 0.00 0.00 0.00 99 1024.8
20260902093824 64 55 1.0 3.0 0.00 0.00 0.00 99 1024.8
20260902093703 65 40 1.0 2.0 0.00 0.00 0.00 99 1024.5
20260902093603 65 37 1.0 2.0 0.00 0.00 0.00 99 1024.6
20260902093503 65 29 1.0 1.0 0.00 0.00 0.00 99 1024.6
20260902093403 65 33 1.0 1.0 0.00 0.00 0.00 99 1024.7
20260902093303 65 39 1.0 2.0 0.00 0.00 0.00 99 1024.8
20260902093203 65 45 1.0 2.0 0.00 0.00 0.00 99 1024.8
20260902093103 64 49 1.0 2.0 0.00 0.00 0.00 99 1024.8
20260902093003 64 56 1.0 2.0 0.00 0.00 0.00 99 1024.8
20260902092903 64 59 1.0 2.0 0.00 0.00 0.00 99 1024.6
20260902092803 63 52 1.0 2.0 0.00 0.00 0.00 99 1024.7
20260902092703 63 53 1.0 2.0 0.00 0.00 0.00 99 1024.6
20260902092603 63 68 1.0 3.0 0.00 0.00 0.00 99 1024.6
20260902092503 63 64 1.0 3.0 0.00 0.00 0.00 99 1024.5
20260902092424 63 63 1.0 3.0 0.00 0.00 0.00 99 1024.7
20260902092305 63 69 1.0 3.0 0.00 0.00 0.00 99 1024.7
20260902092203 63 67 1.0 3.0 0.00 0.00 0.00 99 1024.7
20260902092103 63 68 1.0 3.0 0.00 0.00 0.00 99 1024.6
20260902092024 63 68 1.0 3.0 0.00 0.00 0.00 99 1024.6
20260902091903 63 76 2.0 3.0 0.00 0.00 0.00 99 1024.7
20260902091803 63 76 2.0 3.0 0.00 0.00 0.00 99 1024.7
20260902091703 63 83 2.0 3.0 0.00 0.00 0.00 99 1024.7
20260902091603 63 84 2.0 3.0 0.00 0.00 0.00 99 1024.7
20260902091503 62 72 2.0 3.0 0.00 0.00 0.00 99 1024.6
20260902091403 62 75 2.0 3.0 0.00 0.00 0.00 99 1024.7
20260902091303 62 69 2.0 3.0 0.00 0.00 0.00 99 1024.7
20260902091224 61 65 2.0 3.0 0.00 0.00 0.00 99 1024.6
20260902091103 62 67 2.0 3.0 0.00 0.00 0.00 99 1024.7
20260902091003 62 69 2.0 3.0 0.00 0.00 0.00 99 1024.8
20260902090903 62 68 2.0 3.0 0.00 0.00 0.00 99 1024.7
20260902090803 62 57 1.0 3.0 0.00 0.00 0.00 99 1024.5
20260902090703 62 55 1.0 3.0 0.00 0.00 0.00 99 1024.7
20260902090603 62 49 2.0 3.0 0.00 0.00 0.00 99 1024.7
20260902090503 62 39 2.0 2.0 0.00 0.00 0.00 99 1024.6
20260902090403 61 34 1.0 2.0 0.00 0.00 0.00 99 1024.7
20260902090324 61 34 1.0 2.0 0.00 0.00 0.00 99 1024.7
20260902090203 61 42 1.0 2.0 0.00 0.00 0.00 99 1024.5
20260902090024 61 40 1.0 2.0 0.00 0.00 0.00 99 1024.6
20260902085903 60 29 1.0 2.0 0.00 0.00 0.00 99 1024.6
20260902085803 60 24 1.0 2.0 0.00 0.00 0.00 99 1024.5
20260902085703 60 29 1.0 2.0 0.00 0.00 0.00 99 1024.6
20260902085603 60 30 1.0 2.0 0.00 0.00 0.00 99 1024.6
20260902085503 60 34 1.0 2.0 0.00 0.00 0.00 99 1024.6
20260902085403 60 37 1.0 2.0 0.00 0.00 0.00 99 1024.8
20260902085324 60 39 1.0 2.0 0.00 0.00 0.00 99 1024.7
20260902085203 60 52 1.0 3.0 0.00 0.00 0.00 99 1024.8
20260902085103 60 70 2.0 3.0 0.00 0.00 0.00 99 1024.8
20260902085003 60 71 2.0 3.0 0.00 0.00 0.00 99 1024.6
20260902084924 60 79 2.0 3.0 0.00 0.00 0.00 99 1024.7
20260902084803 60 79 2.0 3.0 0.00 0.00 0.00 99 1024.7
20260902084703 60 79 2.0 3.0 0.00 0.00 0.00 99 1024.7
20260902084603 60 85 2.0 3.0 0.00 0.00 0.00 99 1024.7
20260902084503 60 84 2.0 3.0 0.00 0.00 0.00 99 1024.7
20260902084403 59 82 2.0 3.0 0.00 0.00 0.00 99 1024.6
20260902084303 59 78 2.0 3.0 0.00 0.00 0.00 99 1024.6
20260902084203 59 68 2.0 3.0 0.00 0.00 0.00 99 1024.6
20260902084124 59 49 2.0 3.0 0.00 0.00 0.00 99 1024.5
20260902084003 59 39 1.0 2.0 0.00 0.00 0.00 99 1024.6
20260902083903 59 33 1.0 2.0 0.00 0.00 0.00 99 1024.6
20260902083803 59 31 1.0 2.0 0.00 0.00 0.00 99 1024.8
20260902083703 59 22 1.0 2.0 0.00 0.00 0.00 99 1024.8
20260902083603 59 12 1.0 2.0 0.00 0.00 0.00 99 1024.6
20260902083503 58 7 1.0 2.0 0.00 0.00 0.00 99 1024.6
20260902083403 58 4 1.0 2.0 0.00 0.00 0.00 99 1024.8
20260902083303 58 1 1.0 2.0 0.00 0.00 0.00 99 1024.6
20260902083224 58 1 1.0 2.0 0.00 0.00 0.00 99 1024.6
20260902083103 58 2 1.0 2.0 0.00 0.00 0.00 99 1024.6
20260902083003 58 4 1.0 2.0 0.00 0.00 0.00 99 1024.5
20260902082904 58 4 1.0 2.0 0.00 0.00 0.00 99 1024.5
20260902082803 58 5 1.0 2.0 0.00 0.00 0.00 99 1024.5
20260902082703 58 12 1.0 2.0 0.00 0.00 0.00 99 1024.5
20260902082603 58 12 1.0 2.0 0.00 0.00 0.00 99 1024.4
20260902082503 58 18 1.0 2.0 0.00 0.00 0.00 99 1024.5
20260902082403 58 11 1.0 2.0 0.00 0.00 0.00 99 1024.4
20260902082309 58 15 0.0 2.0 0.00 0.00 0.00 99 1024.4
20260902082203 58 15 1.0 2.0 0.00 0.00 0.00 99 1024.4
20260902082103 58 28 0.0 1.0 0.00 0.00 0.00 99 1024.4
20260902082024 59 27 0.0 1.0 0.00 0.00 0.00 99 1024.4
20260902081924 59 26 0.0 1.0 0.00 0.00 0.00 99 1024.4
20260902081803 58 20 0.0 1.0 0.00 0.00 0.00 99 1024.3
20260902081703 58 15 0.0 1.0 0.00 0.00 0.00 99 1024.3
20260902081603 58 10 0.0 1.0 0.00 0.00 0.00 99 1024.4
20260902081503 58 360 0.0 1.0 0.00 0.00 0.00 99 1024.4
20260902081403 57 360 0.0 1.0 0.00 0.00 0.00 99 1024.3
20260902081303 57 354 0.0 1.0 0.00 0.00 0.00 99 1024.4
20260902081203 57 354 1.0 1.0 0.00 0.00 0.00 99 1024.3
20260902081103 56 355 0.0 1.0 0.00 0.00 0.00 99 1024.3
20260902081004 56 355 1.0 1.0 0.00 0.00 0.00 99 1024.4
20260902080924 56 3 1.0 1.0 0.00 0.00 0.00 99 1024.2
20260902080803 56 7 1.0 1.0 0.00 0.00 0.00 99 1024.2
20260902080703 56 21 1.0 2.0 0.00 0.00 0.00 99 1024.2
20260902080603 56 25 1.0 2.0 0.00 0.00 0.00 99 1024.3
20260902080524 56 30 1.0 2.0 0.00 0.00 0.00 99 1024.2
20260902080424 56 40 1.0 2.0 0.00 0.00 0.00 99 1024.1
20260902080303 56 40 1.0 2.0 0.00 0.00 0.00 99 1024.1
20260902080203 56 45 1.0 2.0 0.00 0.00 0.00 99 1024.3
20260902080103 56 47 1.0 2.0 0.00 0.00 0.00 99 1024.2
20260902080003 56 45 1.0 2.0 0.00 0.00 0.00 99 1024.3
20260902075903 56 43 1.0 2.0 0.00 0.00 0.00 99 1024.3
20260902075803 56 44 1.0 2.0 0.00 0.00 0.00 99 1024.2
20260902075703 56 43 1.0 2.0 0.00 0.00 0.00 99 1024.1
20260902075603 56 42 1.0 2.0 0.00 0.00 0.00 99 1024.1
20260902075503 56 42 1.0 2.0 0.00 0.00 0.00 99 1024.1
20260902075403 56 36 0.0 1.0 0.00 0.00 0.00 99 1024.1
20260902075306 56 36 0.0 1.0 0.00 0.00 0.00 99 1024.2
20260902075203 56 37 1.0 1.0 0.00 0.00 0.00 99 1024.1
20260902075103 56 37 1.0 2.0 0.00 0.00 0.00 99 1024.1
20260902075024 56 37 1.0 2.0 0.00 0.00 0.00 99 1024.0
20260902074902 56 39 1.0 2.0 0.00 0.00 0.00 99 1024.3
20260902074802 56 43 1.0 2.0 0.00 0.00 0.00 99 1023.9
20260902074703 56 47 1.0 2.0 0.00 0.00 0.00 99 1023.9
20260902074602 56 47 1.0 2.0 0.00 0.00 0.00 99 1024.1
20260902074503 56 47 1.0 2.0 0.00 0.00 0.00 99 1024.0
20260902074403 56 49 1.0 3.0 0.00 0.00 0.00 99 1024.1
20260902074303 56 52 1.0 3.0 0.00 0.00 0.00 99 1024.1
20260902074203 56 53 1.0 3.0 0.00 0.00 0.00 99 1023.9
20260902074102 56 54 2.0 3.0 0.00 0.00 0.00 99 1023.8
20260902074003 56 63 2.0 3.0 0.00 0.00 0.00 99 1024.0
20260902073903 56 66 2.0 3.0 0.00 0.00 0.00 99 1024.0
20260902073803 56 66 2.0 3.0 0.00 0.00 0.00 99 1023.9
20260902073723 56 67 2.0 3.0 0.00 0.00 0.00 99 1024.0
20260902073624 56 69 2.0 3.0 0.00 0.00 0.00 99 1023.9
20260902073502 55 76 2.0 3.0 0.00 0.00 0.00 99 1023.9
20260902073424 55 75 2.0 3.0 0.00 0.00 0.00 99 1023.9
20260902073303 55 74 2.0 3.0 0.00 0.00 0.00 99 1023.7
20260902073202 55 76 2.0 3.0 0.00 0.00 0.00 99 1023.8
20260902073102 55 79 2.0 3.0 0.00 0.00 0.00 99 1023.8
20260902073003 55 76 2.0 3.0 0.00 0.00 0.00 99 1023.8
20260902072902 55 78 2.0 3.0 0.00 0.00 0.00 99 1023.8
20260902072803 55 81 2.0 3.0 0.00 0.00 0.00 99 1023.9
20260902072702 55 79 2.0 3.0 0.00 0.00 0.00 99 1023.9
20260902072602 55 77 2.0 3.0 0.00 0.00 0.00 99 1023.8
20260902072503 55 72 2.0 3.0 0.00 0.00 0.00 99 1023.8
20260902072402 55 72 2.0 3.0 0.00 0.00 0.00 99 1023.7
20260902072308 55 70 2.0 3.0 0.00 0.00 0.00 99 1023.7
20260902072202 55 72 2.0 3.0 0.00 0.00 0.00 99 1023.9
20260902072102 55 70 2.0 3.0 0.00 0.00 0.00 99 1023.7
20260902072002 55 64 2.0 3.0 0.00 0.00 0.00 99 1023.9
20260902071923 55 57 1.0 3.0 0.00 0.00 0.00 99 1023.9
20260902071802 55 48 1.0 2.0 0.00 0.00 0.00 99 1023.8
20260902071703 55 49 1.0 2.0 0.00 0.00 0.00 99 1023.7
20260902071603 55 45 1.0 2.0 0.00 0.00 0.00 99 1023.6
20260902071524 55 44 1.0 2.0 0.00 0.00 0.00 99 1023.6
20260902071403 55 45 1.0 2.0 0.00 0.00 0.00 99 1023.8
20260902071323 55 41 1.0 2.0 0.00 0.00 0.00 99 1023.7
20260902071202 55 41 1.0 2.0 0.00 0.00 0.00 99 1023.8
20260902071124 55 38 1.0 1.0 0.00 0.00 0.00 99 1023.8
20260902071003 55 38 1.0 1.0 0.00 0.00 0.00 99 1023.7
20260902070902 55 37 1.0 1.0 0.00 0.00 0.00 99 1023.7
20260902070803 55 37 1.0 1.0 0.00 0.00 0.00 99 1023.7
20260902070702 55 37 1.0 1.0 0.00 0.00 0.00 99 1023.7
20260902070602 55 37 1.0 1.0 0.00 0.00 0.00 99 1023.8
20260902070502 55 37 0.0 1.0 0.00 0.00 0.00 99 1023.8
20260902070403 55 37 0.0 1.0 0.00 0.00 0.00 99 1023.6
20260902070303 55 37 0.0 1.0 0.00 0.00 0.00 99 1023.6
20260902070203 55 36 0.0 1.0 0.00 0.00 0.00 99 1023.6
20260902070024 55 34 0.0 1.0 0.00 0.00 0.00 99 1023.7
20260902065903 55 33 0.0 1.0 0.00 0.00 0.00 99 1023.7
20260902065802 55 33 0.0 1.0 0.00 0.00 0.00 99 1023.7
20260902065702 55 33 0.0 1.0 0.00 0.00 0.00 99 1023.6
20260902065603 55 33 0.0 1.0 0.00 0.00 0.00 99 1023.7
20260902065503 55 33 0.0 1.0 0.00 0.00 0.00 99 1023.7
20260902065403 55 33 0.0 1.0 0.00 0.00 0.00 99 1023.6
20260902065306 55 33 0.0 1.0 0.00 0.00 0.00 99 1023.6
20260902065202 55 33 0.0 1.0 0.00 0.00 0.00 99 1023.5
20260902065102 55 33 0.0 1.0 0.00 0.00 0.00 99 1023.5
20260902065003 55 33 0.0 1.0 0.00 0.00 0.00 99 1023.3
20260902064924 55 33 0.0 1.0 0.00 0.00 0.00 99 1023.2
20260902064802 55 0 0.0 0.0 0.00 0.00 0.00 99 1023.2
20260902064703 55 0 0.0 0.0 0.00 0.00 0.00 99 1023.2
20260902064603 55 0 0.0 0.0 0.00 0.00 0.00 99 1023.5
20260902064502 55 0 0.0 0.0 0.00 0.00 0.00 99 1023.3
20260902064423 55 0 0.0 0.0 0.00 0.00 0.00 99 1023.1
20260902064303 55 0 0.0 0.0 0.00 0.00 0.00 99 1023.2
20260902064202 55 0 0.0 0.0 0.00 0.00 0.00 99 1023.2
20260902064102 54 0 0.0 0.0 0.00 0.00 0.00 99 1023.3
20260902064003 54 0 0.0 0.0 0.00 0.00 0.00 99 1023.3
20260902063903 54 31 0.0 1.0 0.00 0.00 0.00 99 1023.3
20260902063803 54 32 0.0 1.0 0.00 0.00 0.00 99 1023.5
20260902063703 54 32 0.0 1.0 0.00 0.00 0.00 99 1023.1
20260902063602 54 30 0.0 1.0 0.00 0.00 0.00 99 1023.2
20260902063503 54 30 0.0 1.0 0.00 0.00 0.00 99 1023.5
20260902063403 54 30 0.0 1.0 0.00 0.00 0.00 99 1023.5
20260902063302 54 30 0.0 1.0 0.00 0.00 0.00 99 1023.3
20260902063202 54 30 0.0 1.0 0.00 0.00 0.00 99 1023.5
20260902063102 54 30 0.0 1.0 0.00 0.00 0.00 99 1023.3
20260902063024 54 30 0.0 1.0 0.00 0.00 0.00 99 1023.2
20260902062903 54 30 0.0 1.0 0.00 0.00 0.00 99 1023.2
20260902062803 54 30 0.0 1.0 0.00 0.00 0.00 99 1023.1
20260902062702 54 29 0.0 1.0 0.00 0.00 0.00 99 1023.1
20260902062624 54 28 0.0 1.0 0.00 0.00 0.00 99 1023.2
20260902062502 54 29 0.0 1.0 0.00 0.00 0.00 99 1023.5
20260902062424 54 25 0.0 1.0 0.00 0.00 0.00 99 1023.2
20260902062305 54 28 0.0 1.0 0.00 0.00 0.00 99 1023.2
20260902062203 54 28 0.0 1.0 0.00 0.00 0.00 99 1023.2
20260902062102 54 29 0.0 1.0 0.00 0.00 0.00 99 1023.1
20260902062003 54 31 0.0 1.0 0.00 0.00 0.00 99 1023.1
20260902061903 54 32 1.0 1.0 0.00 0.00 0.00 99 1023.1
20260902061803 54 32 1.0 1.0 0.00 0.00 0.00 99 1023.2
20260902061703 54 33 1.0 1.0 0.00 0.00 0.00 99 1023.2
20260902061524 54 33 1.0 1.0 0.00 0.00 0.00 99 1023.3
20260902061424 54 35 1.0 1.0 0.00 0.00 0.00 99 1023.1
20260902061302 54 35 1.0 1.0 0.00 0.00 0.00 99 1023.0
20260902061245 54 35 1.0 1.0 0.00 0.00 0.00 99 1023.1
20260902061103 54 35 1.0 1.0 0.00 0.00 0.00 99 1023.1
20260902061023 54 35 0.0 1.0 0.00 0.00 0.00 99 1023.2
20260902060903 54 35 0.0 1.0 0.00 0.00 0.00 99 1023.0
20260902060823 54 35 0.0 1.0 0.00 0.00 0.00 99 1023.2
20260902060702 54 35 0.0 1.0 0.00 0.00 0.00 99 1023.2
20260902060602 54 35 0.0 1.0 0.00 0.00 0.00 99 1023.1
20260902060502 54 35 0.0 1.0 0.00 0.00 0.00 99 1023.1
20260902060403 54 35 0.0 1.0 0.00 0.00 0.00 99 1023.2
20260902060302 54 35 0.0 1.0 0.00 0.00 0.00 99 1023.2
20260902060224 54 34 0.0 1.0 0.00 0.00 0.00 99 1023.2
20260902060124 54 34 0.0 1.0 0.00 0.00 0.00 99 1023.1
20260902060024 54 0 0.0 1.0 0.00 0.00 0.00 99 1023.1
20260902055903 54 35 0.0 1.0 0.00 0.00 0.00 99 1023.1
20260902055802 54 35 0.0 1.0 0.00 0.00 0.00 99 1023.1
20260902055703 54 35 0.0 1.0 0.00 0.00 0.00 99 1023.0
20260902055602 54 35 0.0 1.0 0.00 0.00 0.00 99 1022.9
20260902055503 54 35 0.0 1.0 0.00 0.00 0.00 99 1022.9
20260902055424 54 35 0.0 1.0 0.00 0.00 0.00 99 1022.9
20260902055306 54 35 0.0 1.0 0.00 0.00 0.00 99 1023.1
20260902055224 54 35 0.0 1.0 0.00 0.00 0.00 99 1023.1
20260902055102 54 35 0.0 1.0 0.00 0.00 0.00 99 1023.1
20260902055002 54 35 0.0 1.0 0.00 0.00 0.00 99 1022.9
20260902054902 54 35 0.0 1.0 0.00 0.00 0.00 99 1022.9
20260902054802 54 35 0.0 1.0 0.00 0.00 0.00 99 1023.1
20260902054724 54 34 0.0 1.0 0.00 0.00 0.00 99 1023.1
20260902054602 54 34 0.0 1.0 0.00 0.00 0.00 99 1022.9
20260902054524 54 34 1.0 1.0 0.00 0.00 0.00 99 1022.9
20260902054403 54 34 1.0 1.0 0.00 0.00 0.00 99 1023.1
20260902054303 54 33 0.0 1.0 0.00 0.00 0.00 99 1023.1
20260902054203 54 33 0.0 1.0 0.00 0.00 0.00 99 1023.0
20260902054102 54 33 0.0 1.0 0.00 0.00 0.00 99 1023.2
20260902054003 54 32 0.0 1.0 0.00 0.00 0.00 99 1023.0
20260902053903 54 32 0.0 1.0 0.00 0.00 0.00 99 1023.0
20260902053803 54 32 0.0 1.0 0.00 0.00 0.00 99 1023.2
20260902053703 54 32 0.0 1.0 0.00 0.00 0.00 99 1022.9
20260902053603 54 33 0.0 1.0 0.00 0.00 0.00 99 1023.0
20260902053524 54 33 0.0 1.0 0.00 0.00 0.00 99 1023.0
20260902053403 54 33 0.0 1.0 0.00 0.00 0.00 99 1023.1
20260902053303 54 34 0.0 1.0 0.00 0.00 0.00 99 1023.1
20260902053203 54 34 0.0 1.0 0.00 0.00 0.00 99 1022.9
20260902053103 54 35 0.0 1.0 0.00 0.00 0.00 99 1022.9
20260902053002 54 35 0.0 1.0 0.00 0.00 0.00 99 1022.9
20260902052902 54 35 1.0 1.0 0.00 0.00 0.00 99 1022.9
20260902052803 54 36 1.0 1.0 0.00 0.00 0.00 99 1022.9
20260902052703 54 44 1.0 2.0 0.00 0.00 0.00 99 1022.9
20260902052603 54 45 1.0 2.0 0.00 0.00 0.00 99 1023.0
20260902052503 54 45 1.0 2.0 0.00 0.00 0.00 99 1022.9
20260902052403 54 44 1.0 2.0 0.00 0.00 0.00 99 1022.9
20260902052306 54 44 1.0 2.0 0.00 0.00 0.00 99 1022.9
20260902052203 54 45 1.0 2.0 0.00 0.00 0.00 99 1022.9
20260902052102 54 45 1.0 2.0 0.00 0.00 0.00 99 1023.0
20260902052003 54 45 1.0 2.0 0.00 0.00 0.00 99 1022.9
20260902051903 54 47 1.0 2.0 0.00 0.00 0.00 99 1022.9
20260902051803 54 48 1.0 2.0 0.00 0.00 0.00 99 1022.8
20260902051703 54 45 1.0 2.0 0.00 0.00 0.00 99 1022.9
20260902051603 54 43 1.0 2.0 0.00 0.00 0.00 99 1022.8
20260902051503 54 42 1.0 2.0 0.00 0.00 0.00 99 1022.8
20260902051403 54 42 1.0 2.0 0.00 0.00 0.00 99 1022.9
20260902051303 54 42 1.0 2.0 0.00 0.00 0.00 99 1022.8
20260902051203 54 42 1.0 2.0 0.00 0.00 0.00 99 1022.9
20260902051103 54 40 1.0 2.0 0.00 0.00 0.00 99 1022.9
20260902051003 54 41 1.0 2.0 0.00 0.00 0.00 99 1023.0
20260902050902 54 37 1.0 2.0 0.00 0.00 0.00 99 1022.9
20260902050824 54 35 1.0 1.0 0.00 0.00 0.00 99 1023.0
20260902050703 54 35 1.0 1.0 0.00 0.00 0.00 99 1023.0
20260902050624 54 34 1.0 1.0 0.00 0.00 0.00 99 1022.9
20260902050502 54 34 1.0 1.0 0.00 0.00 0.00 99 1023.0
20260902050403 54 35 1.0 1.0 0.00 0.00 0.00 99 1022.8
20260902050303 54 35 0.0 1.0 0.00 0.00 0.00 99 1022.8
20260902050203 54 36 0.0 1.0 0.00 0.00 0.00 99 1023.0
20260902050004 54 36 0.0 1.0 0.00 0.00 0.00 99 1022.8
20260902045903 54 36 0.0 1.0 0.00 0.00 0.00 99 1022.8
20260902045803 54 44 1.0 2.0 0.00 0.00 0.00 99 1022.9
20260902045703 54 46 1.0 2.0 0.00 0.00 0.00 99 1022.8
20260902045603 54 46 1.0 2.0 0.00 0.00 0.00 99 1022.7
20260902045503 54 45 1.0 2.0 0.00 0.00 0.00 99 1022.7
20260902045403 54 45 1.0 2.0 0.00 0.00 0.00 99 1022.8
20260902045306 55 45 1.0 2.0 0.00 0.00 0.00 99 1022.7
20260902045203 55 44 1.0 2.0 0.00 0.00 0.00 99 1022.7
20260902045124 55 46 1.0 2.0 0.00 0.00 0.00 99 1022.5
20260902045003 55 46 1.0 2.0 0.00 0.00 0.00 99 1022.9
20260902044903 55 47 1.0 2.0 0.00 0.00 0.00 99 1022.7
20260902044803 55 43 1.0 2.0 0.00 0.00 0.00 99 1022.7
20260902044724 55 43 1.0 2.0 0.00 0.00 0.00 99 1022.7
20260902044603 55 42 1.0 2.0 0.00 0.00 0.00 99 1022.7
20260902044503 55 42 1.0 2.0 0.00 0.00 0.00 99 1022.7
20260902044403 55 42 1.0 2.0 0.00 0.00 0.00 99 1022.8
20260902044303 55 41 1.0 2.0 0.00 0.00 0.00 99 1022.7
20260902044203 55 42 1.0 2.0 0.00 0.00 0.00 99 1022.7
20260902044103 55 42 1.0 2.0 0.00 0.00 0.00 99 1022.7
20260902044024 55 39 1.0 2.0 0.00 0.00 0.00 99 1022.7
20260902043903 55 38 1.0 2.0 0.00 0.00 0.00 99 1022.7
20260902043803 55 37 1.0 2.0 0.00 0.00 0.00 99 1022.8
20260902043703 55 37 1.0 2.0 0.00 0.00 0.00 99 1022.7
20260902043603 55 37 1.0 2.0 0.00 0.00 0.00 99 1022.8
20260902043524 55 36 1.0 1.0 0.00 0.00 0.00 99 1022.8
20260902043403 55 39 1.0 1.0 0.00 0.00 0.00 99 1022.8
20260902043324 55 38 0.0 1.0 0.00 0.00 0.00 99 1022.8
20260902043203 55 39 0.0 1.0 0.00 0.00 0.00 99 1022.8
20260902043103 55 38 0.0 1.0 0.00 0.00 0.00 99 1022.8
20260902043003 55 38 0.0 1.0 0.00 0.00 0.00 99 1022.7
20260902042903 55 40 0.0 1.0 0.00 0.00 0.00 99 1022.8
20260902042824 55 42 0.0 1.0 0.00 0.00 0.00 99 1022.7
20260902042724 55 41 0.0 1.0 0.00 0.00 0.00 99 1022.7
20260902042603 55 41 0.0 1.0 0.00 0.00 0.00 99 1022.8
20260902042503 55 40 0.0 1.0 0.00 0.00 0.00 99 1022.7
20260902042403 55 37 0.0 1.0 0.00 0.00 0.00 99 1022.7
20260902042308 55 38 0.0 1.0 0.00 0.00 0.00 99 1022.7
20260902042203 56 38 1.0 2.0 0.00 0.00 0.00 99 1022.7
20260902042103 56 42 1.0 2.0 0.00 0.00 0.00 99 1022.8
20260902042003 56 44 1.0 2.0 0.00 0.00 0.00 99 1022.8
20260902041903 56 44 1.0 2.0 0.00 0.00 0.00 99 1022.8
20260902041803 56 44 1.0 2.0 0.00 0.00 0.00 99 1022.7
20260902041703 56 45 1.0 2.0 0.00 0.00 0.00 99 1022.6
20260902041603 56 45 1.0 2.0 0.00 0.00 0.00 99 1022.7
20260902041503 56 45 1.0 2.0 0.00 0.00 0.00 99 1022.7
20260902041403 56 44 1.0 2.0 0.00 0.00 0.00 99 1022.6
20260902041303 56 44 1.0 2.0 0.00 0.00 0.00 99 1022.7
20260902041203 56 44 1.0 2.0 0.00 0.00 0.00 99 1022.8
20260902041103 56 45 1.0 2.0 0.00 0.00 0.00 99 1022.8
20260902041003 56 56 1.0 3.0 0.00 0.00 0.00 99 1022.6
20260902040903 56 55 1.0 3.0 0.00 0.00 0.00 99 1022.8
20260902040803 56 55 1.0 3.0 0.00 0.00 0.00 99 1022.7
20260902040703 56 54 1.0 3.0 0.00 0.00 0.00 99 1022.7
20260902040603 56 55 1.0 3.0 0.00 0.00 0.00 99 1022.8
20260902040503 56 56 1.0 3.0 0.00 0.00 0.00 99 1022.7
20260902040403 56 57 1.0 3.0 0.00 0.00 0.00 99 1022.8
20260902040303 56 57 2.0 3.0 0.00 0.00 0.00 99 1022.8
20260902040203 56 60 2.0 3.0 0.00 0.00 0.00 99 1022.6
20260902040024 56 68 2.0 3.0 0.00 0.00 0.00 99 1022.7
20260902035903 56 69 2.0 3.0 0.00 0.00 0.00 99 1022.7
20260902035803 56 69 2.0 3.0 0.00 0.00 0.00 99 1022.7
20260902035724 56 73 2.0 4.0 0.00 0.00 0.00 99 1022.7
20260902035603 56 73 2.0 4.0 0.00 0.00 0.00 99 1022.9
20260902035503 56 74 2.0 4.0 0.00 0.00 0.00 99 1022.8
20260902035424 56 73 2.0 4.0 0.00 0.00 0.00 99 1022.9
20260902035305 56 72 2.0 4.0 0.00 0.00 0.00 99 1022.9
20260902035224 56 73 2.0 4.0 0.00 0.00 0.00 99 1022.6
20260902035103 56 73 2.0 4.0 0.00 0.00 0.00 99 1022.6
20260902035003 56 68 2.0 4.0 0.00 0.00 0.00 99 1022.7
20260902034924 56 64 2.0 4.0 0.00 0.00 0.00 99 1022.7
20260902034803 56 61 2.0 4.0 0.00 0.00 0.00 99 1022.5
20260902034703 56 56 2.0 2.0 0.00 0.00 0.00 99 1022.5
20260902034603 56 55 2.0 2.0 0.00 0.00 0.00 99 1022.6
20260902034524 56 54 2.0 2.0 0.00 0.00 0.00 99 1022.7
20260902034424 56 54 1.0 2.0 0.00 0.00 0.00 99 1022.7
20260902034303 56 55 1.0 2.0 0.00 0.00 0.00 99 1022.7
20260902034203 56 55 1.0 2.0 0.00 0.00 0.00 99 1022.7
20260902034124 56 54 1.0 2.0 0.00 0.00 0.00 99 1022.6
20260902034024 56 53 1.0 2.0 0.00 0.00 0.00 99 1022.8
20260902033924 56 52 1.0 2.0 0.00 0.00 0.00 99 1022.8
20260902033803 56 51 1.0 2.0 0.00 0.00 0.00 99 1022.8
20260902033703 56 50 1.0 2.0 0.00 0.00 0.00 99 1023.0
20260902033624 56 52 1.0 2.0 0.00 0.00 0.00 99 1022.8
20260902033503 56 50 1.0 2.0 0.00 0.00 0.00 99 1022.8
20260902033403 56 51 1.0 2.0 0.00 0.00 0.00 99 1022.8
20260902033303 56 51 1.0 2.0 0.00 0.00 0.00 99 1022.8
20260902033203 56 48 1.0 2.0 0.00 0.00 0.00 99 1022.8
20260902033124 56 47 1.0 2.0 0.00 0.00 0.00 99 1022.8
20260902033003 56 47 1.0 2.0 0.00 0.00 0.00 99 1023.0
20260902032903 56 48 1.0 2.0 0.00 0.00 0.00 99 1022.9
20260902032803 56 48 1.0 2.0 0.00 0.00 0.00 99 1022.9
20260902032703 56 48 1.0 2.0 0.00 0.00 0.00 99 1022.9
20260902032603 56 46 1.0 2.0 0.00 0.00 0.00 99 1022.8
20260902032503 56 45 1.0 2.0 0.00 0.00 0.00 99 1022.9
20260902032403 56 44 1.0 2.0 0.00 0.00 0.00 99 1022.9
20260902032305 56 46 1.0 2.0 0.00 0.00 0.00 99 1022.9
20260902032203 56 47 1.0 2.0 0.00 0.00 0.00 99 1022.9
20260902032103 56 48 1.0 2.0 0.00 0.00 0.00 99 1022.8
20260902032003 56 49 1.0 2.0 0.00 0.00 0.00 99 1023.1
20260902031903 56 47 1.0 2.0 0.00 0.00 0.00 99 1023.0
20260902031803 56 47 1.0 2.0 0.00 0.00 0.00 99 1022.9
20260902031703 56 47 1.0 2.0 0.00 0.00 0.00 99 1023.0
20260902031603 57 46 1.0 2.0 0.00 0.00 0.00 99 1022.9
20260902031524 57 46 1.0 2.0 0.00 0.00 0.00 99 1022.9
20260902031403 57 45 1.0 2.0 0.00 0.00 0.00 99 1022.9
20260902031303 57 41 1.0 2.0 0.00 0.00 0.00 99 1022.9
20260902031203 57 38 1.0 1.0 0.00 0.00 0.00 99 1023.1
20260902031103 57 37 1.0 1.0 0.00 0.00 0.00 99 1022.9
20260902031003 57 36 1.0 1.0 0.00 0.00 0.00 99 1023.1
20260902030903 57 36 1.0 1.0 0.00 0.00 0.00 99 1023.1
20260902030803 57 35 1.0 1.0 0.00 0.00 0.00 99 1022.8
20260902030703 57 35 1.0 2.0 0.00 0.00 0.00 99 1023.0
20260902030603 57 45 1.0 2.0 0.00 0.00 0.00 99 1022.9
20260902030503 57 49 1.0 2.0 0.00 0.00 0.00 99 1023.1
20260902030424 57 51 1.0 2.0 0.00 0.00 0.00 99 1023.0
20260902030303 57 53 1.0 2.0 0.00 0.00 0.00 99 1023.0
20260902030203 57 54 1.0 2.0 0.00 0.00 0.00 99 1023.0
20260902030003 57 61 2.0 3.0 0.00 0.00 0.00 99 1023.0
20260902025903 57 62 2.0 3.0 0.00 0.00 0.00 99 1023.0
20260902025803 57 62 2.0 3.0 0.00 0.00 0.00 99 1022.9
20260902025703 57 63 2.0 3.0 0.00 0.00 0.00 99 1023.0
20260902025603 57 58 2.0 3.0 0.00 0.00 0.00 99 1022.9
20260902025503 57 57 2.0 3.0 0.00 0.00 0.00 99 1022.9
20260902025403 57 57 2.0 3.0 0.00 0.00 0.00 99 1022.7
20260902025306 57 56 2.0 3.0 0.00 0.00 0.00 99 1022.8
20260902025203 57 55 1.0 3.0 0.00 0.00 0.00 99 1022.9
20260902025103 57 53 1.0 3.0 0.00 0.00 0.00 99 1022.9
20260902025003 57 43 1.0 2.0 0.00 0.00 0.00 99 1022.8
20260902024924 57 42 1.0 2.0 0.00 0.00 0.00 99 1022.7
20260902024803 57 40 1.0 2.0 0.00 0.00 0.00 99 1022.8
20260902024703 57 37 1.0 2.0 0.00 0.00 0.00 99 1022.8
20260902024624 57 36 1.0 1.0 0.00 0.00 0.00 99 1022.9
20260902024503 57 37 1.0 1.0 0.00 0.00 0.00 99 1022.9
20260902024403 57 36 1.0 1.0 0.00 0.00 0.00 99 1022.9
20260902024303 57 36 1.0 1.0 0.00 0.00 0.00 99 1022.9
20260902024203 57 36 1.0 1.0 0.00 0.00 0.00 99 1022.9
20260902024103 57 37 1.0 1.0 0.00 0.00 0.00 99 1023.0
20260902024003 57 36 1.0 1.0 0.00 0.00 0.00 99 1022.9
20260902023903 57 36 1.0 1.0 0.00 0.00 0.00 99 1022.9
20260902023803 57 37 1.0 1.0 0.00 0.00 0.00 99 1022.7
20260902023703 57 38 1.0 1.0 0.00 0.00 0.00 99 1023.1
20260902023603 57 38 1.0 2.0 0.00 0.00 0.00 99 1023.2
20260902023524 57 40 1.0 2.0 0.00 0.00 0.00 99 1023.2
20260902023403 57 43 1.0 2.0 0.00 0.00 0.00 99 1022.8
20260902023303 57 43 1.0 2.0 0.00 0.00 0.00 99 1023.0
20260902023203 57 43 1.0 2.0 0.00 0.00 0.00 99 1023.1
20260902023103 57 43 1.0 2.0 0.00 0.00 0.00 99 1023.1
20260902023003 57 44 1.0 2.0 0.00 0.00 0.00 99 1022.9
20260902022903 57 45 1.0 2.0 0.00 0.00 0.00 99 1023.0
20260902022803 57 45 1.0 2.0 0.00 0.00 0.00 99 1023.0
20260902022703 57 44 1.0 2.0 0.00 0.00 0.00 99 1023.0
20260902022603 57 44 1.0 2.0 0.00 0.00 0.00 99 1023.0
20260902022503 57 42 1.0 2.0 0.00 0.00 0.00 99 1023.0
20260902022403 57 41 1.0 2.0 0.00 0.00 0.00 99 1023.0
20260902022305 57 40 1.0 1.0 0.00 0.00 0.00 99 1023.0
20260902022203 57 40 1.0 1.0 0.00 0.00 0.00 99 1022.9
20260902022103 57 39 1.0 1.0 0.00 0.00 0.00 99 1023.0
20260902022003 57 39 1.0 2.0 0.00 0.00 0.00 99 1022.9
20260902021903 57 40 1.0 2.0 0.00 0.00 0.00 99 1022.9
20260902021803 57 41 1.0 2.0 0.00 0.00 0.00 99 1023.1
20260902021703 57 41 1.0 2.0 0.00 0.00 0.00 99 1023.0
20260902021603 57 41 1.0 2.0 0.00 0.00 0.00 99 1023.0
20260902021503 57 42 1.0 2.0 0.00 0.00 0.00 99 1023.0
20260902021403 57 42 1.0 2.0 0.00 0.00 0.00 99 1023.0
20260902021303 57 41 1.0 2.0 0.00 0.00 0.00 99 1023.1
20260902021203 58 41 1.0 2.0 0.00 0.00 0.00 99 1023.1
20260902021103 58 41 1.0 2.0 0.00 0.00 0.00 99 1023.1
20260902021003 58 41 1.0 2.0 0.00 0.00 0.00 99 1022.8
20260902020903 58 41 1.0 1.0 0.00 0.00 0.00 99 1022.9
20260902020803 57 40 1.0 1.0 0.00 0.00 0.00 99 1023.1
20260902020703 57 40 1.0 1.0 0.00 0.00 0.00 99 1023.1
20260902020603 57 40 1.0 1.0 0.00 0.00 0.00 99 1023.0
20260902020503 58 39 1.0 1.0 0.00 0.00 0.00 99 1022.8
20260902020403 58 39 1.0 1.0 0.00 0.00 0.00 99 1022.8
20260902020303 58 38 1.0 1.0 0.00 0.00 0.00 99 1022.8
20260902020203 58 38 1.0 1.0 0.00 0.00 0.00 99 1022.9
20260902020024 58 38 1.0 1.0 0.00 0.00 0.00 99 1022.8
20260902015903 58 37 1.0 1.0 0.00 0.00 0.00 99 1022.8
20260902015824 57 37 1.0 1.0 0.00 0.00 0.00 99 1022.9
20260902015703 57 37 1.0 1.0 0.00 0.00 0.00 99 1022.9
20260902015603 57 37 1.0 1.0 0.00 0.00 0.00 99 1023.0
20260902015503 58 37 0.0 1.0 0.00 0.00 0.00 99 1023.0
20260902015403 58 37 0.0 1.0 0.00 0.00 0.00 99 1022.8
20260902015305 58 36 0.0 1.0 0.00 0.00 0.00 99 1023.0
20260902015203 58 36 0.0 1.0 0.00 0.00 0.00 99 1023.0
20260902015103 58 36 0.0 1.0 0.00 0.00 0.00 99 1023.0
20260902015003 58 36 0.0 1.0 0.00 0.00 0.00 99 1023.0
20260902014903 58 0 0.0 0.0 0.00 0.00 0.00 99 1023.0
20260902014803 58 0 0.0 0.0 0.00 0.00 0.00 99 1022.9
20260902014703 58 0 0.0 0.0 0.00 0.00 0.00 99 1022.9
20260902014603 58 0 0.0 0.0 0.00 0.00 0.00 99 1023.0
20260902014503 58 0 0.0 0.0 0.00 0.00 0.00 99 1022.8
20260902014403 58 0 0.0 0.0 0.00 0.00 0.00 99 1023.1
20260902014303 58 0 0.0 0.0 0.00 0.00 0.00 99 1023.1
20260902014203 58 0 0.0 0.0 0.00 0.00 0.00 99 1022.9
20260902014103 58 0 0.0 0.0 0.00 0.00 0.00 99 1023.1
20260902014003 58 0 0.0 0.0 0.00 0.00 0.00 99 1023.0
20260902013903 58 0 0.0 0.0 0.00 0.00 0.00 99 1023.0
20260902013803 58 0 0.0 0.0 0.00 0.00 0.00 99 1023.0
20260902013724 58 0 0.0 0.0 0.00 0.00 0.00 99 1023.2
20260902013603 58 0 0.0 0.0 0.00 0.00 0.00 99 1023.1
20260902013503 58 0 0.0 0.0 0.00 0.00 0.00 99 1023.1
20260902013403 58 0 0.0 0.0 0.00 0.00 0.00 99 1023.1
20260902013303 58 0 0.0 0.0 0.00 0.00 0.00 99 1023.3
20260902013203 58 0 0.0 0.0 0.00 0.00 0.00 99 1023.1
20260902013103 58 0 0.0 0.0 0.00 0.00 0.00 99 1023.1
20260902013003 58 0 0.0 0.0 0.00 0.00 0.00 99 1023.1
20260902012924 58 0 0.0 0.0 0.00 0.00 0.00 99 1023.3
20260902012803 58 0 0.0 0.0 0.00 0.00 0.00 99 1023.2
20260902012703 58 0 0.0 0.0 0.00 0.00 0.00 99 1023.2
20260902012603 58 0 0.0 0.0 0.00 0.00 0.00 99 1023.0
20260902012524 58 0 0.0 0.0 0.00 0.00 0.00 99 1023.2
20260902012403 58 0 0.0 0.0 0.00 0.00 0.00 99 1023.1
20260902012308 58 0 0.0 0.0 0.00 0.00 0.00 99 1023.1
20260902012203 58 0 0.0 0.0 0.00 0.00 0.00 99 1023.2
20260902012103 58 0 0.0 0.0 0.00 0.00 0.00 99 1023.2
20260902012003 58 0 0.0 0.0 0.00 0.00 0.00 99 1023.1
20260902011903 58 37 0.0 1.0 0.00 0.00 0.00 99 1023.1
20260902011803 58 37 0.0 1.0 0.00 0.00 0.00 99 1023.1
20260902011724 58 37 0.0 1.0 0.00 0.00 0.00 99 1023.1
20260902011624 58 37 0.0 1.0 0.00 0.00 0.00 99 1023.3
20260902011503 58 37 0.0 1.0 0.00 0.00 0.00 99 1023.3
20260902011403 58 37 0.0 1.0 0.00 0.00 0.00 99 1023.1
20260902011324 58 37 0.0 1.0 0.00 0.00 0.00 99 1023.1
20260902011203 58 37 0.0 1.0 0.00 0.00 0.00 99 1023.1
20260902011103 58 37 0.0 1.0 0.00 0.00 0.00 99 1023.1
20260902011003 58 37 0.0 1.0 0.00 0.00 0.00 99 1023.1
20260902010903 58 37 0.0 1.0 0.00 0.00 0.00 99 1022.9
20260902010803 58 37 1.0 2.0 0.00 0.00 0.00 99 1023.0
20260902010703 58 37 1.0 2.0 0.00 0.00 0.00 99 1023.0
20260902010603 58 37 1.0 2.0 0.00 0.00 0.00 99 1023.0
20260902010503 58 37 1.0 2.0 0.00 0.00 0.00 99 1023.0
20260902010403 58 37 1.0 2.0 0.00 0.00 0.00 99 1023.0
20260902010324 58 37 1.0 2.0 0.00 0.00 0.00 99 1023.0
20260902010203 58 37 1.0 2.0 0.00 0.00 0.00 99 1022.9
20260902010003 58 37 1.0 2.0 0.00 0.00 0.00 99 1022.8
20260902005904 58 36 0.0 2.0 0.00 0.00 0.00 99 1022.8
20260902005803 59 36 0.0 1.0 0.00 0.00 0.00 99 1022.9
20260902005703 59 35 0.0 1.0 0.00 0.00 0.00 99 1023.0
20260902005603 59 35 0.0 1.0 0.00 0.00 0.00 99 1023.1
20260902005503 59 35 0.0 1.0 0.00 0.00 0.00 99 1023.1
20260902005424 59 34 0.0 1.0 0.00 0.00 0.00 99 1023.0
20260902005305 59 34 0.0 1.0 0.00 0.00 0.00 99 1022.8
20260902005203 59 33 0.0 1.0 0.00 0.00 0.00 99 1023.0
20260902005103 59 33 0.0 1.0 0.00 0.00 0.00 99 1023.0
20260902005024 59 33 0.0 1.0 0.00 0.00 0.00 99 1023.0
20260902004903 59 33 0.0 1.0 0.00 0.00 0.00 99 1023.1
20260902004803 59 33 0.0 1.0 0.00 0.00 0.00 99 1023.0
20260902004703 59 33 0.0 1.0 0.00 0.00 0.00 99 1023.0
20260902004603 59 33 0.0 1.0 0.00 0.00 0.00 99 1023.0
20260902004503 59 33 0.0 1.0 0.00 0.00 0.00 99 1023.1
20260902004403 59 33 0.0 1.0 0.00 0.00 0.00 99 1023.0
20260902004324 59 33 0.0 1.0 0.00 0.00 0.00 99 1023.0
20260902004224 59 33 0.0 1.0 0.00 0.00 0.00 99 1023.1
20260902004103 59 33 0.0 1.0 0.00 0.00 0.00 99 1023.0
20260902004003 59 33 0.0 1.0 0.00 0.00 0.00 99 1023.1
20260902003903 59 33 0.0 1.0 0.00 0.00 0.00 99 1023.1
20260902003803 59 33 0.0 1.0 0.00 0.00 0.00 99 1022.9
20260902003703 59 34 0.0 1.0 0.00 0.00 0.00 99 1023.1
20260902003603 59 33 0.0 1.0 0.00 0.00 0.00 99 1022.9
20260902003524 59 33 0.0 1.0 0.00 0.00 0.00 99 1023.0
20260902003403 59 33 0.0 1.0 0.00 0.00 0.00 99 1023.0
20260902003303 59 33 0.0 1.0 0.00 0.00 0.00 99 1023.0
20260902003203 59 33 0.0 1.0 0.00 0.00 0.00 99 1023.1
20260902003103 59 33 0.0 1.0 0.00 0.00 0.00 99 1023.0
20260902003003 59 33 0.0 1.0 0.00 0.00 0.00 99 1023.0
20260902002903 59 33 0.0 1.0 0.00 0.00 0.00 99 1023.0
20260902002803 59 33 0.0 1.0 0.00 0.00 0.00 99 1023.1
20260902002703 59 33 0.0 1.0 0.00 0.00 0.00 99 1022.9
20260902002603 59 33 0.0 1.0 0.00 0.00 0.00 99 1022.9
20260902002503 59 33 0.0 1.0 0.00 0.00 0.00 99 1022.9
20260902002403 59 33 0.0 1.0 0.00 0.00 0.00 99 1023.0
20260902002306 59 33 0.0 1.0 0.00 0.00 0.00 99 1023.0
20260902002203 59 33 0.0 1.0 0.00 0.00 0.00 99 1023.0
20260902002103 59 33 0.0 1.0 0.00 0.00 0.00 99 1023.0
20260902002003 59 33 0.0 1.0 0.00 0.00 0.00 99 1023.1
20260902001903 59 0 0.0 0.0 0.00 0.00 0.00 99 1023.1
20260902001803 59 0 0.0 0.0 0.00 0.00 0.00 99 1022.9
20260902001703 59 0 0.0 0.0 0.00 0.00 0.00 99 1023.0
20260902001603 59 0 0.0 0.0 0.00 0.00 0.00 99 1023.0
20260902001503 59 0 0.0 0.0 0.00 0.00 0.00 99 1023.0
20260902001403 59 0 0.0 0.0 0.00 0.00 0.00 99 1023.0
20260902001303 59 0 0.0 0.0 0.00 0.00 0.00 99 1023.0
20260902001203 60 0 0.0 0.0 0.00 0.00 0.00 99 1023.1
20260902001103 60 0 0.0 0.0 0.00 0.00 0.00 99 1023.1
20260902001003 60 0 0.0 0.0 0.00 0.00 0.00 99 1022.8
20260902000903 60 0 0.0 0.0 0.00 0.00 0.00 99 1023.0
20260902000803 60 0 0.0 0.0 0.00 0.00 0.00 99 1023.0
20260902000703 60 0 0.0 0.0 0.00 0.00 0.00 99 1023.0
20260902000603 60 0 0.0 0.0 0.00 0.00 0.00 99 1023.0
20260902000503 60 0 0.0 0.0 0.00 0.00 0.00 99 1023.0
20260902000403 60 0 0.0 0.0 0.00 0.00 0.00 99 1023.1
20260902000304 60 0 0.0 0.0 0.00 0.00 0.00 99 1022.9
20260902000204 60 0 0.0 0.0 0.00 0.00 0.00 99 1023.1
20260902000124 60 0 0.0 0.0 0.00 0.00 0.00 99 1023.0
20260902000003 60 0 0.0 0.0 0.00 0.00 0.00 99 1023.0
20260901235903 60 0 0.0 0.0 0.00 0.00 0.00 99 1023.1
20260901235803 60 0 0.0 0.0 0.00 0.00 0.00 99 1023.2
20260901235703 60 0 0.0 0.0 0.00 0.00 0.00 99 1023.0
20260901235603 60 0 0.0 0.0 0.00 0.00 0.00 99 1023.0
20260901235503 60 33 0.0 1.0 0.00 0.00 0.00 99 1022.9
20260901235424 60 33 0.0 1.0 0.00 0.00 0.00 99 1022.9
20260901235307 60 33 0.0 1.0 0.00 0.00 0.00 99 1023.0
20260901235203 60 33 0.0 1.0 0.00 0.00 0.00 99 1022.9
20260901235103 60 33 0.0 1.0 0.00 0.00 0.00 99 1023.1
20260901235024 60 33 0.0 1.0 0.00 0.00 0.00 99 1023.1
20260901234924 60 33 0.0 1.0 0.00 0.00 0.00 99 1022.9
20260901234803 60 33 0.0 1.0 0.00 0.00 0.00 99 1022.8
20260901234703 60 33 0.0 1.0 0.00 0.00 0.00 99 1022.8
20260901234603 60 33 0.0 1.0 0.00 0.00 0.00 99 1022.9
20260901234503 60 33 0.0 1.0 0.00 0.00 0.00 99 1022.9
20260901234403 60 33 0.0 1.0 0.00 0.00 0.00 99 1023.0
20260901234303 60 33 0.0 1.0 0.00 0.00 0.00 99 1023.0
20260901234203 60 33 0.0 1.0 0.00 0.00 0.00 99 1023.0
20260901234124 60 33 0.0 1.0 0.00 0.00 0.00 99 1022.9
20260901234003 60 33 0.0 1.0 0.00 0.00 0.00 99 1022.9
20260901233928 60 33 0.0 1.0 0.00 0.00 0.00 99 1022.9
20260901233803 60 33 0.0 1.0 0.00 0.00 0.00 99 1022.9
20260901233703 60 0 0.0 0.0 0.00 0.00 0.00 99 1022.9
20260901233624 60 0 0.0 0.0 0.00 0.00 0.00 99 1023.0
20260901233503 60 0 0.0 0.0 0.00 0.00 0.00 99 1023.0
20260901233403 60 0 0.0 0.0 0.00 0.00 0.00 99 1022.9
20260901233303 60 0 0.0 0.0 0.00 0.00 0.00 99 1022.9
20260901233203 60 0 0.0 0.0 0.00 0.00 0.00 99 1022.9
20260901233124 60 0 0.0 0.0 0.00 0.00 0.00 99 1022.9
20260901233024 60 0 0.0 0.0 0.00 0.00 0.00 99 1023.0
20260901232924 60 0 0.0 0.0 0.00 0.00 0.00 99 1022.9
20260901232803 60 0 0.0 0.0 0.00 0.00 0.00 99 1022.9
20260901232703 60 0 0.0 0.0 0.00 0.00 0.00 99 1022.9
20260901232624 60 0 0.0 0.0 0.00 0.00 0.00 99 1022.8
20260901232503 60 0 0.0 0.0 0.00 0.00 0.00 99 1022.8
20260901232403 60 0 0.0 0.0 0.00 0.00 0.00 99 1022.8
20260901232324 60 0 0.0 0.0 0.00 0.00 0.00 99 1022.8
20260901232203 60 0 0.0 0.0 0.00 0.00 0.00 99 1022.9
20260901232103 60 0 0.0 0.0 0.00 0.00 0.00 99 1022.9
20260901232003 60 0 0.0 0.0 0.00 0.00 0.00 99 1022.8
20260901231903 60 0 0.0 0.0 0.00 0.00 0.00 99 1022.8
20260901231803 60 0 0.0 0.0 0.00 0.00 0.00 99 1022.8
20260901231703 60 0 0.0 0.0 0.00 0.00 0.00 99 1022.8
20260901231604 60 33 0.0 1.0 0.00 0.00 0.00 99 1022.7
20260901231503 60 33 0.0 1.0 0.00 0.00 0.00 99 1022.7
20260901231403 60 34 0.0 1.0 0.00 0.00 0.00 99 1023.0
20260901231303 60 34 0.0 1.0 0.00 0.00 0.00 99 1022.8
20260901231224 60 44 0.0 2.0 0.00 0.00 0.00 99 1022.7
20260901231103 60 44 0.0 2.0 0.00 0.00 0.00 99 1022.7
20260901231003 60 44 0.0 2.0 0.00 0.00 0.00 99 1022.8
20260901230903 60 44 0.0 2.0 0.00 0.00 0.00 99 1022.8
20260901230824 60 44 0.0 2.0 0.00 0.00 0.00 99 1022.8
20260901230703 60 44 0.0 2.0 0.00 0.00 0.00 99 1022.8
20260901230603 60 47 0.0 2.0 0.00 0.00 0.00 99 1022.8
20260901230503 60 47 0.0 2.0 0.00 0.00 0.00 99 1022.8
20260901230424 60 54 0.0 2.0 0.00 0.00 0.00 99 1022.7
20260901230303 60 54 0.0 2.0 0.00 0.00 0.00 99 1022.7
20260901230203 60 36 0.0 1.0 0.00 0.00 0.00 99 1022.8
20260901230003 60 36 0.0 1.0 0.00 0.00 0.00 99 1022.7
20260901225903 60 38 0.0 1.0 0.00 0.00 0.00 99 1022.7
20260901225824 60 39 0.0 2.0 0.00 0.00 0.00 99 1022.8
20260901225703 60 39 0.0 2.0 0.00 0.00 0.00 99 1022.8
20260901225603 60 38 0.0 2.0 0.00 0.00 0.00 99 1022.9
20260901225503 60 38 0.0 2.0 0.00 0.00 0.00 99 1022.9
20260901225403 60 38 0.0 2.0 0.00 0.00 0.00 99 1022.9
20260901225306 60 38 0.0 2.0 0.00 0.00 0.00 99 1022.8
20260901225203 61 38 0.0 2.0 0.00 0.00 0.00 99 1022.8
20260901225124 61 39 0.0 2.0 0.00 0.00 0.00 99 1022.8
20260901225003 61 39 0.0 2.0 0.00 0.00 0.00 99 1022.9
20260901224903 61 39 0.0 2.0 0.00 0.00 0.00 99 1022.9
20260901224803 61 38 0.0 2.0 0.00 0.00 0.00 99 1022.8
20260901224703 61 30 0.0 1.0 0.00 0.00 0.00 98 1022.8
20260901224603 61 27 0.0 1.0 0.00 0.00 0.00 98 1022.7
20260901224503 61 27 0.0 1.0 0.00 0.00 0.00 98 1022.8
20260901224403 61 27 0.0 1.0 0.00 0.00 0.00 98 1022.9
20260901224303 61 27 0.0 1.0 0.00 0.00 0.00 98 1022.9
20260901224203 61 27 0.0 1.0 0.00 0.00 0.00 98 1022.8
20260901224103 61 27 0.0 1.0 0.00 0.00 0.00 98 1022.8
20260901224003 61 27 0.0 1.0 0.00 0.00 0.00 98 1022.8
20260901223903 61 27 0.0 1.0 0.00 0.00 0.00 98 1022.8
20260901223803 61 27 0.0 1.0 0.00 0.00 0.00 98 1022.7
20260901223703 61 27 0.0 1.0 0.00 0.00 0.00 98 1022.9
20260901223624 62 27 0.0 1.0 0.00 0.00 0.00 98 1022.7
20260901223524 62 27 0.0 1.0 0.00 0.00 0.00 98 1022.7
20260901223424 62 27 0.0 1.0 0.00 0.00 0.00 98 1022.9
20260901223324 62 27 0.0 1.0 0.00 0.00 0.00 98 1023.0
20260901223203 62 27 0.0 1.0 0.00 0.00 0.00 98 1022.9
20260901223103 62 26 0.0 1.0 0.00 0.00 0.00 98 1022.9
20260901223003 62 26 0.0 1.0 0.00 0.00 0.00 98 1022.9
20260901222903 62 26 0.0 1.0 0.00 0.00 0.00 98 1023.0
20260901222803 62 26 0.0 1.0 0.00 0.00 0.00 98 1023.1
20260901222724 62 26 0.0 1.0 0.00 0.00 0.00 98 1022.9
20260901222603 62 26 0.0 1.0 0.00 0.00 0.00 98 1023.0
20260901222503 62 26 0.0 1.0 0.00 0.00 0.00 98 1023.0
20260901222403 62 26 0.0 1.0 0.00 0.00 0.00 98 1023.0
20260901222306 62 26 0.0 1.0 0.00 0.00 0.00 98 1022.9
20260901222203 62 26 0.0 1.0 0.00 0.00 0.00 98 1022.9
20260901222103 62 26 0.0 1.0 0.00 0.00 0.00 98 1022.9
20260901222003 62 26 0.0 1.0 0.00 0.00 0.00 98 1022.9
20260901221924 62 26 0.0 1.0 0.00 0.00 0.00 98 1022.9
20260901221824 62 26 0.0 1.0 0.00 0.00 0.00 98 1023.1
20260901221703 62 26 0.0 1.0 0.00 0.00 0.00 98 1023.0
20260901221624 62 26 0.0 1.0 0.00 0.00 0.00 98 1023.0
20260901221503 62 26 0.0 1.0 0.00 0.00 0.00 98 1023.1
20260901221424 62 26 0.0 1.0 0.00 0.00 0.00 98 1022.9
20260901221303 62 26 0.0 1.0 0.00 0.00 0.00 98 1023.0
20260901221203 62 26 0.0 1.0 0.00 0.00 0.00 98 1022.9
20260901221103 62 26 0.0 1.0 0.00 0.00 0.00 98 1022.9
20260901221003 62 26 0.0 1.0 0.00 0.00 0.00 98 1023.0
20260901220903 62 27 0.0 1.0 0.00 0.00 0.00 98 1022.9
20260901220803 62 29 0.0 1.0 0.00 0.00 0.00 98 1023.1
20260901220703 62 29 0.0 1.0 0.00 0.00 0.00 98 1023.0
20260901220603 62 23 0.0 1.0 0.00 0.00 0.00 98 1023.1
20260901220524 62 23 0.0 1.0 0.00 0.00 0.00 98 1023.1
20260901220403 62 23 0.0 1.0 0.00 0.00 0.00 98 1023.0
20260901220303 62 23 0.0 1.0 0.00 0.00 0.00 98 1023.0
20260901220203 62 23 0.0 1.0 0.00 0.00 0.00 98 1022.9
20260901220124 62 23 0.0 1.0 0.00 0.00 0.00 98 1022.9
20260901220003 62 23 0.0 1.0 0.00 0.00 0.00 98 1022.9
20260901215903 62 23 0.0 1.0 0.00 0.00 0.00 98 1023.0
20260901215803 62 16 0.0 1.0 0.00 0.00 0.00 98 1023.0
20260901215724 62 16 0.0 1.0 0.00 0.00 0.00 98 1023.0
20260901215603 62 4 0.0 1.0 0.00 0.00 0.00 97 1022.8
20260901215524 62 0 0.0 0.0 0.00 0.00 0.00 97 1022.9
20260901215403 62 0 0.0 0.0 0.00 0.00 0.00 97 1023.0
20260901215305 62 0 0.0 0.0 0.00 0.00 0.00 97 1022.9
20260901215224 62 0 0.0 0.0 0.00 0.00 0.00 97 1022.9
20260901215103 62 0 0.0 0.0 0.00 0.00 0.00 97 1022.9
20260901215003 62 0 0.0 0.0 0.00 0.00 0.00 97 1022.9
20260901214903 62 0 0.0 0.0 0.00 0.00 0.00 97 1023.0
20260901214824 62 0 0.0 0.0 0.00 0.00 0.00 97 1023.0
20260901214703 62 0 0.0 0.0 0.00 0.00 0.00 97 1023.0
20260901214603 62 0 0.0 0.0 0.00 0.00 0.00 97 1023.0
20260901214524 62 0 0.0 0.0 0.00 0.00 0.00 97 1023.0
20260901214403 62 0 0.0 0.0 0.00 0.00 0.00 97 1023.1
20260901214303 62 0 0.0 0.0 0.00 0.00 0.00 97 1022.9
20260901214203 62 0 0.0 0.0 0.00 0.00 0.00 97 1023.1
20260901214103 62 0 0.0 0.0 0.00 0.00 0.00 97 1023.1
20260901214024 62 0 0.0 0.0 0.00 0.00 0.00 97 1023.1
20260901213924 62 0 0.0 0.0 0.00 0.00 0.00 97 1023.0
20260901213803 62 0 0.0 0.0 0.00 0.00 0.00 97 1023.1
20260901213703 62 0 0.0 0.0 0.00 0.00 0.00 97 1023.1
20260901213624 62 4 0.0 1.0 0.00 0.00 0.00 96 1023.1
20260901213524 62 4 0.0 1.0 0.00 0.00 0.00 96 1023.2
20260901213403 62 4 0.0 1.0 0.00 0.00 0.00 96 1023.0
20260901213303 62 4 0.0 1.0 0.00 0.00 0.00 96 1023.1
20260901213203 63 4 0.0 1.0 0.00 0.00 0.00 96 1023.2
20260901213103 63 4 0.0 1.0 0.00 0.00 0.00 96 1023.1
20260901213003 63 4 0.0 1.0 0.00 0.00 0.00 96 1023.1
20260901212903 63 4 0.0 1.0 0.00 0.00 0.00 96 1023.3
20260901212803 63 4 0.0 1.0 0.00 0.00 0.00 96 1022.9
20260901212703 63 4 0.0 1.0 0.00 0.00 0.00 96 1022.9
20260901212603 62 0 0.0 0.0 0.00 0.00 0.00 96 1022.8
20260901212503 62 0 0.0 0.0 0.00 0.00 0.00 96 1023.1
20260901212403 62 0 0.0 0.0 0.00 0.00 0.00 96 1023.0
20260901212306 63 0 0.0 0.0 0.00 0.00 0.00 96 1023.0
20260901212203 63 0 0.0 0.0 0.00 0.00 0.00 96 1023.0
20260901212103 63 0 0.0 0.0 0.00 0.00 0.00 96 1023.0
20260901212024 63 0 0.0 0.0 0.00 0.00 0.00 96 1023.1
20260901211903 63 0 0.0 0.0 0.00 0.00 0.00 96 1023.1
20260901211803 63 0 0.0 0.0 0.00 0.00 0.00 96 1023.1
20260901211703 63 0 0.0 0.0 0.00 0.00 0.00 96 1022.8
20260901211624 63 0 0.0 0.0 0.00 0.00 0.00 96 1022.9
20260901211503 63 0 0.0 0.0 0.00 0.00 0.00 96 1022.9
20260901211403 63 0 0.0 0.0 0.00 0.00 0.00 96 1023.0
20260901211303 63 0 0.0 0.0 0.00 0.00 0.00 96 1022.9
20260901211203 63 0 0.0 0.0 0.00 0.00 0.00 96 1023.0
20260901211124 63 0 0.0 0.0 0.00 0.00 0.00 96 1023.0
20260901211003 63 0 0.0 0.0 0.00 0.00 0.00 96 1022.9
20260901210903 63 0 0.0 0.0 0.00 0.00 0.00 96 1023.0
20260901210803 63 0 0.0 0.0 0.00 0.00 0.00 96 1022.8
20260901210703 63 0 0.0 0.0 0.00 0.00 0.00 96 1022.9
20260901210603 63 0 0.0 0.0 0.00 0.00 0.00 96 1022.8
20260901210503 63 0 0.0 0.0 0.00 0.00 0.00 96 1022.8
20260901210424 63 0 0.0 0.0 0.00 0.00 0.00 96 1022.9
20260901210303 63 0 0.0 0.0 0.00 0.00 0.00 96 1022.8
20260901210224 63 0 0.0 0.0 0.00 0.00 0.00 96 1022.8
20260901210003 63 3 0.0 1.0 0.00 0.00 0.00 96 1022.8
20260901205924 63 3 0.0 1.0 0.00 0.00 0.00 96 1022.8
20260901205803 63 3 0.0 1.0 0.00 0.00 0.00 96 1022.9
20260901205703 63 3 0.0 1.0 0.00 0.00 0.00 96 1022.9
20260901205603 63 3 0.0 1.0 0.00 0.00 0.00 95 1022.9
20260901205503 63 4 0.0 1.0 0.00 0.00 0.00 95 1022.9
20260901205424 64 3 0.0 1.0 0.00 0.00 0.00 95 1022.9
20260901205306 64 2 0.0 1.0 0.00 0.00 0.00 95 1023.0
20260901205203 64 2 0.0 1.0 0.00 0.00 0.00 95 1022.8
20260901205103 64 2 0.0 1.0 0.00 0.00 0.00 95 1022.8
20260901205003 64 2 0.0 1.0 0.00 0.00 0.00 95 1022.7
20260901204924 64 2 0.0 1.0 0.00 0.00 0.00 95 1022.9
20260901204824 64 3 0.0 1.0 0.00 0.00 0.00 95 1022.8
20260901204703 64 3 1.0 1.0 0.00 0.00 0.00 95 1022.9
20260901204603 64 3 1.0 1.0 0.00 0.00 0.00 95 1022.7
20260901204503 64 3 1.0 1.0 0.00 0.00 0.00 95 1022.8
20260901204403 64 3 0.0 1.0 0.00 0.00 0.00 95 1022.9
20260901204303 64 4 0.0 1.0 0.00 0.00 0.00 95 1022.9
20260901204224 64 4 0.0 1.0 0.00 0.00 0.00 95 1022.9
20260901204103 64 4 0.0 1.0 0.00 0.00 0.00 95 1022.9
20260901204003 64 4 0.0 1.0 0.00 0.00 0.00 95 1022.9
20260901203924 64 4 0.0 1.0 0.00 0.00 0.00 95 1022.9
20260901203803 64 4 0.0 1.0 0.00 0.00 0.00 95 1022.9
20260901203703 64 4 0.0 1.0 0.00 0.00 0.00 95 1022.9
20260901203603 64 5 0.0 1.0 0.00 0.00 0.00 95 1022.7
20260901203503 64 0 0.0 0.0 0.00 0.00 0.00 95 1022.7
20260901203403 64 0 0.0 0.0 0.00 0.00 0.00 95 1022.8
20260901203303 64 0 0.0 0.0 0.00 0.00 0.00 95 1022.7
20260901203203 63 0 0.0 0.0 0.00 0.00 0.00 95 1022.8
20260901203103 63 0 0.0 0.0 0.00 0.00 0.00 95 1022.6
20260901203024 63 0 0.0 0.0 0.00 0.00 0.00 95 1022.5
20260901202903 63 0 0.0 0.0 0.00 0.00 0.00 94 1022.6
20260901202803 64 0 0.0 0.0 0.00 0.00 0.00 94 1022.6
20260901202703 64 0 0.0 0.0 0.00 0.00 0.00 94 1022.4
20260901202603 64 0 0.0 0.0 0.00 0.00 0.00 94 1022.5
20260901202503 64 0 0.0 0.0 0.00 0.00 0.00 94 1022.7
20260901202403 64 0 0.0 0.0 0.00 0.00 0.00 94 1022.6
20260901202306 64 0 0.0 0.0 0.00 0.00 0.00 94 1022.6
20260901202203 64 0 0.0 0.0 0.00 0.00 0.00 94 1022.5
20260901202103 64 0 0.0 0.0 0.00 0.00 0.00 94 1022.5
20260901202003 64 0 0.0 0.0 0.00 0.00 0.00 94 1022.6
20260901201903 64 0 0.0 0.0 0.00 0.00 0.00 94 1022.5
20260901201803 64 0 0.0 0.0 0.00 0.00 0.00 94 1022.4
20260901201703 64 0 0.0 0.0 0.00 0.00 0.00 94 1022.4
20260901201624 64 0 0.0 0.0 0.00 0.00 0.00 94 1022.5
20260901201503 64 0 0.0 0.0 0.00 0.00 0.00 94 1022.5
20260901201403 64 0 0.0 0.0 0.00 0.00 0.00 94 1022.5
20260901201303 64 0 0.0 0.0 0.00 0.00 0.00 93 1022.4
20260901201224 64 0 0.0 0.0 0.00 0.00 0.00 93 1022.5
20260901201103 64 0 0.0 0.0 0.00 0.00 0.00 93 1022.7
20260901201003 64 0 0.0 0.0 0.00 0.00 0.00 93 1022.4
20260901200924 64 0 0.0 0.0 0.00 0.00 0.00 93 1022.4
20260901200803 64 356 0.0 1.0 0.00 0.00 0.00 93 1022.5
20260901200703 65 354 0.0 1.0 0.00 0.00 0.00 93 1022.5
20260901200624 65 354 0.0 1.0 0.00 0.00 0.00 93 1022.5
20260901200503 65 355 0.0 1.0 0.00 0.00 0.00 93 1022.6
20260901200403 65 355 0.0 1.0 0.00 0.00 0.00 93 1022.4
20260901200324 65 355 0.0 1.0 0.00 0.00 0.00 93 1022.4